DAL65 KLAX-NZAA

Flight info

Callsign DAL65
Flight time 12h 17m
Altitude 34000
Route ZILLI5 FICKY B577 LENNA DCT 29N125W 26N130W/N0495F360 23N135W 19N140W 14N145W 10N150W/N0492F380 05N154W 00N158W 05S162W 10S167W/N0486F400 DCT DARMA DCT 15S171W 20S175W 25S179W 30S179E DCT ELPAK
Aircraft A359/H-SDE2E3GHIJ3J4J5LM1ORWXY/LB1D1

Departure

Time 2026-04-23 03:16
Airport Los Angeles International Airport (KLAX)

Arrival

Time 2026-04-23 15:34
Airport Auckland International Airport (NZAA)
Time Latitude Longitude Altitude Speed Heading
2026-04-23 02:39 33.94608 -118.40844 101 ft 0 kts 91°
2026-04-23 02:42 33.94533 -118.40771 101 ft 0 kts 84°
2026-04-23 02:42 33.94531 -118.40801 101 ft 0 kts 84°
2026-04-23 03:02 33.94531 -118.40802 101 ft 1 kts 84°
2026-04-23 03:02 33.94529 -118.40823 106 ft 4 kts 75°
2026-04-23 03:02 33.94525 -118.40837 109 ft 4 kts 100°
2026-04-23 03:03 33.94511 -118.40821 100 ft 7 kts 140°
2026-04-23 03:03 33.94523 -118.40833 109 ft 4 kts 133°
2026-04-23 03:03 33.94536 -118.40852 103 ft 4 kts 132°
2026-04-23 03:03 33.94555 -118.40873 100 ft 4 kts 151°
2026-04-23 03:04 33.94578 -118.40884 101 ft 2 kts 172°
2026-04-23 03:04 33.94579 -118.40884 101 ft 0 kts 172°
2026-04-23 03:06 33.94571 -118.40890 100 ft 3 kts 213°
2026-04-23 03:06 33.94574 -118.40905 98 ft 1 kts 293°
2026-04-23 03:07 33.94603 -118.40902 103 ft 5 kts
2026-04-23 03:07 33.94606 -118.40902 103 ft 0 kts 359°
2026-04-23 03:10 33.94614 -118.40902 101 ft 3 kts 359°
2026-04-23 03:10 33.94639 -118.40903 102 ft 4 kts 357°
2026-04-23 03:10 33.94672 -118.40907 102 ft 5 kts 354°
2026-04-23 03:11 33.94707 -118.40909 103 ft 5 kts
2026-04-23 03:11 33.94746 -118.40896 103 ft 6 kts 19°
2026-04-23 03:11 33.94793 -118.40883 106 ft 8 kts 16°
2026-04-23 03:11 33.94830 -118.40840 106 ft 9 kts 63°
2026-04-23 03:12 33.94848 -118.40745 106 ft 15 kts 82°
2026-04-23 03:12 33.94861 -118.40613 106 ft 16 kts 84°
2026-04-23 03:12 33.94874 -118.40481 106 ft 16 kts 82°
2026-04-23 03:12 33.94887 -118.40365 106 ft 7 kts 82°
2026-04-23 03:13 33.94893 -118.40305 106 ft 7 kts 82°
2026-04-23 03:13 33.94900 -118.40244 106 ft 8 kts 83°
2026-04-23 03:13 33.94908 -118.40174 106 ft 10 kts 82°
2026-04-23 03:13 33.94917 -118.40084 106 ft 11 kts 83°
2026-04-23 03:14 33.94927 -118.39993 106 ft 11 kts 82°
2026-04-23 03:14 33.94963 -118.39926 109 ft 7 kts 32°
2026-04-23 03:14 33.94988 -118.39917 110 ft 3 kts 10°
2026-04-23 03:14 33.95031 -118.39952 111 ft 7 kts 286°
2026-04-23 03:15 33.95033 -118.40017 113 ft 0 kts 266°
2026-04-23 03:15 33.95033 -118.40019 114 ft 5 kts 266°
2026-04-23 03:15 33.95010 -118.40320 114 ft 67 kts 262°
2026-04-23 03:15 33.94923 -118.41118 115 ft 123 kts 263°
2026-04-23 03:16 33.94789 -118.42316 161 ft 166 kts 261°
2026-04-23 03:16 33.94631 -118.43761 583 ft 176 kts 263°
2026-04-23 03:16 33.94345 -118.46606 1891 ft 185 kts 264°
2026-04-23 03:17 33.94247 -118.48213 2095 ft 200 kts 269°
2026-04-23 03:17 33.94210 -118.49973 2248 ft 219 kts 270°
2026-04-23 03:17 33.94165 -118.51879 2482 ft 236 kts 268°
2026-04-23 03:17 33.94030 -118.53891 2839 ft 245 kts 266°
2026-04-23 03:18 33.93855 -118.55951 3312 ft 250 kts 265°
2026-04-23 03:18 33.93680 -118.58059 3807 ft 254 kts 266°
2026-04-23 03:18 33.93505 -118.60190 4274 ft 259 kts 266°
2026-04-23 03:18 33.93327 -118.62361 4770 ft 263 kts 266°
2026-04-23 03:19 33.93149 -118.64562 5284 ft 265 kts 266°
2026-04-23 03:19 33.92979 -118.66778 5884 ft 265 kts 267°
2026-04-23 03:19 33.92809 -118.68981 6470 ft 265 kts 266°
2026-04-23 03:19 33.92636 -118.71198 7004 ft 265 kts 266°
2026-04-23 03:20 33.92465 -118.73410 7581 ft 264 kts 266°
2026-04-23 03:20 33.92294 -118.75608 8139 ft 264 kts 266°
2026-04-23 03:20 33.92122 -118.77813 8716 ft 264 kts 267°
2026-04-23 03:20 33.91950 -118.80006 9300 ft 263 kts 267°
2026-04-23 03:21 33.91779 -118.82201 9878 ft 263 kts 267°
2026-04-23 03:21 33.91714 -118.84411 10287 ft 267 kts 272°
2026-04-23 03:21 33.91764 -118.86702 10488 ft 280 kts 274°
2026-04-23 03:21 33.91847 -118.89085 10672 ft 292 kts 274°
2026-04-23 03:22 33.91932 -118.91548 10871 ft 304 kts 274°
2026-04-23 03:22 33.92016 -118.94138 11093 ft 315 kts 274°
2026-04-23 03:22 33.92098 -118.96817 11281 ft 326 kts 274°
2026-04-23 03:22 33.92167 -118.99588 11472 ft 336 kts 271°
2026-04-23 03:23 33.91884 -119.02424 11626 ft 350 kts 257°
2026-04-23 03:23 33.91020 -119.05226 11828 ft 361 kts 250°
2026-04-23 03:23 33.89995 -119.08019 12146 ft 366 kts 249°
2026-04-23 03:23 33.88951 -119.10823 12541 ft 368 kts 250°
2026-04-23 03:24 33.87911 -119.13637 12950 ft 369 kts 250°
2026-04-23 03:24 33.86870 -119.16470 13372 ft 370 kts 250°
2026-04-23 03:24 33.85829 -119.19313 13765 ft 372 kts 250°
2026-04-23 03:24 33.84785 -119.22166 14143 ft 373 kts 250°
2026-04-23 03:25 33.83748 -119.25007 14482 ft 375 kts 250°
2026-04-23 03:25 33.82695 -119.27887 14853 ft 376 kts 250°
2026-04-23 03:25 33.81636 -119.30756 15233 ft 377 kts 249°
2026-04-23 03:25 33.80365 -119.33544 15572 ft 383 kts 241°
2026-04-23 03:26 33.78685 -119.36065 15926 ft 390 kts 231°
2026-04-23 03:26 33.76632 -119.38244 16300 ft 395 kts 224°
2026-04-23 03:26 33.74461 -119.40279 16662 ft 397 kts 223°
2026-04-23 03:26 33.72267 -119.42307 17040 ft 398 kts 223°
2026-04-23 03:27 33.70069 -119.44347 17398 ft 399 kts 223°
2026-04-23 03:27 33.67864 -119.46400 17752 ft 400 kts 223°
2026-04-23 03:27 33.65662 -119.48456 18097 ft 402 kts 223°
2026-04-23 03:27 33.63454 -119.50520 18437 ft 403 kts 223°
2026-04-23 03:28 33.61241 -119.52588 18710 ft 405 kts 223°
2026-04-23 03:28 33.59011 -119.54672 18982 ft 407 kts 223°
2026-04-23 03:28 33.56777 -119.56759 19246 ft 408 kts 223°
2026-04-23 03:28 33.54531 -119.58855 19507 ft 410 kts 223°
2026-04-23 03:29 33.52279 -119.60957 19780 ft 412 kts 223°
2026-04-23 03:29 33.50004 -119.63077 20055 ft 413 kts 223°
2026-04-23 03:29 33.47732 -119.65194 20326 ft 415 kts 223°
2026-04-23 03:29 33.45478 -119.67292 20585 ft 417 kts 223°
2026-04-23 03:30 33.43189 -119.69422 20871 ft 418 kts 223°
2026-04-23 03:30 33.40881 -119.71568 21140 ft 420 kts 223°
2026-04-23 03:30 33.38568 -119.73717 21424 ft 421 kts 223°
2026-04-23 03:30 33.36250 -119.75870 21694 ft 423 kts 223°
2026-04-23 03:31 33.33924 -119.78028 21960 ft 425 kts 223°
2026-04-23 03:31 33.31580 -119.80202 22232 ft 426 kts 223°
2026-04-23 03:31 33.29229 -119.82380 22507 ft 428 kts 223°
2026-04-23 03:31 33.26873 -119.84562 22781 ft 429 kts 223°
2026-04-23 03:32 33.24510 -119.86748 23048 ft 431 kts 223°
2026-04-23 03:32 33.22131 -119.88948 23314 ft 433 kts 223°
2026-04-23 03:32 33.19743 -119.91154 23567 ft 434 kts 223°
2026-04-23 03:32 33.17352 -119.93361 23818 ft 435 kts 223°
2026-04-23 03:33 33.14951 -119.95576 24047 ft 437 kts 223°
2026-04-23 03:33 33.13360 -119.97043 24201 ft 437 kts 223°
2026-04-23 03:33 33.10945 -119.99269 24438 ft 438 kts 223°
2026-04-23 03:33 33.08533 -120.01490 24677 ft 439 kts 223°
2026-04-23 03:34 33.05325 -120.04442 24993 ft 440 kts 223°
2026-04-23 03:34 33.02895 -120.06676 25219 ft 441 kts 223°
2026-04-23 03:34 33.00466 -120.08908 25455 ft 442 kts 223°
2026-04-23 03:34 32.98817 -120.10422 25625 ft 442 kts 223°
2026-04-23 03:35 32.96378 -120.12660 25852 ft 443 kts 223°
2026-04-23 03:35 32.93928 -120.14906 26087 ft 444 kts 223°
2026-04-23 03:35 32.91480 -120.17150 26334 ft 445 kts 223°
2026-04-23 03:35 32.89021 -120.19401 26595 ft 446 kts 223°
2026-04-23 03:36 32.86598 -120.21619 26834 ft 447 kts 223°
2026-04-23 03:36 32.84125 -120.23880 27066 ft 448 kts 223°
2026-04-23 03:36 32.81649 -120.26142 27316 ft 448 kts 223°
2026-04-23 03:36 32.79176 -120.28399 27556 ft 449 kts 224°
2026-04-23 03:37 32.76699 -120.30660 27779 ft 450 kts 224°
2026-04-23 03:37 32.74202 -120.32937 28022 ft 451 kts 224°
2026-04-23 03:37 32.71711 -120.35206 28253 ft 451 kts 224°
2026-04-23 03:37 32.69214 -120.37479 28463 ft 452 kts 224°
2026-04-23 03:38 32.66724 -120.39745 28679 ft 453 kts 224°
2026-04-23 03:38 32.64209 -120.42031 28864 ft 454 kts 224°
2026-04-23 03:38 32.61697 -120.44314 29086 ft 454 kts 224°
2026-04-23 03:38 32.59192 -120.46587 29404 ft 452 kts 224°
2026-04-23 03:39 32.56709 -120.48843 29738 ft 450 kts 224°
2026-04-23 03:39 32.54221 -120.51098 30080 ft 448 kts 224°
2026-04-23 03:39 32.51748 -120.53339 30379 ft 446 kts 224°
2026-04-23 03:39 32.49287 -120.55567 30642 ft 444 kts 224°
2026-04-23 03:40 32.46837 -120.57785 30945 ft 442 kts 224°
2026-04-23 03:40 32.44431 -120.59961 31254 ft 439 kts 224°
2026-04-23 03:40 32.42015 -120.62145 31552 ft 436 kts 224°
2026-04-23 03:40 32.39606 -120.64322 31845 ft 434 kts 224°
2026-04-23 03:41 32.37213 -120.66483 32116 ft 432 kts 224°
2026-04-23 03:41 32.34824 -120.68639 32364 ft 430 kts 224°
2026-04-23 03:41 32.32451 -120.70779 32590 ft 429 kts 224°
2026-04-23 03:41 32.30078 -120.72919 32833 ft 427 kts 224°
2026-04-23 03:42 32.27716 -120.75046 33065 ft 426 kts 224°
2026-04-23 03:42 32.25359 -120.77167 33287 ft 425 kts 224°
2026-04-23 03:42 32.23006 -120.79284 33501 ft 424 kts 224°
2026-04-23 03:42 32.20657 -120.81395 33706 ft 423 kts 224°
2026-04-23 03:43 32.18317 -120.83496 33911 ft 422 kts 224°
2026-04-23 03:43 32.16010 -120.85567 34100 ft 422 kts 224°
2026-04-23 03:43 32.11290 -120.89804 34200 ft 427 kts 224°
2026-04-23 03:44 32.06543 -120.94056 34201 ft 428 kts 224°
2026-04-23 03:44 32.01798 -120.98297 34210 ft 428 kts 224°
2026-04-23 03:45 31.97077 -121.02513 34208 ft 429 kts 224°
2026-04-23 03:45 31.92314 -121.06761 34207 ft 429 kts 224°
2026-04-23 03:46 31.87559 -121.10996 34210 ft 429 kts 224°
2026-04-23 03:46 31.82790 -121.15237 34210 ft 429 kts 224°
2026-04-23 03:47 31.78028 -121.19468 34208 ft 429 kts 224°
2026-04-23 03:47 31.73261 -121.23696 34213 ft 429 kts 224°
2026-04-23 03:48 31.68492 -121.27921 34211 ft 429 kts 224°
2026-04-23 03:48 31.63753 -121.32114 34213 ft 429 kts 224°
2026-04-23 03:49 31.58980 -121.36333 34215 ft 429 kts 224°
2026-04-23 03:49 31.54640 -121.40994 34213 ft 418 kts 235°
2026-04-23 03:50 31.51094 -121.46373 34216 ft 416 kts 238°
2026-04-23 03:50 31.47687 -121.51851 34219 ft 416 kts 238°
2026-04-23 03:51 31.44271 -121.57324 34219 ft 416 kts 238°
2026-04-23 03:51 31.40831 -121.62770 34222 ft 416 kts 238°
2026-04-23 03:52 31.37382 -121.68200 34224 ft 416 kts 238°
2026-04-23 03:52 31.33923 -121.73634 34227 ft 416 kts 238°
2026-04-23 03:53 31.30470 -121.79052 34226 ft 416 kts 238°
2026-04-23 03:53 31.27015 -121.84468 34227 ft 415 kts 237°
2026-04-23 03:54 31.23560 -121.89877 34228 ft 415 kts 237°
2026-04-23 03:54 31.20101 -121.95283 34229 ft 415 kts 237°
2026-04-23 03:55 31.16670 -122.00639 34226 ft 415 kts 237°
2026-04-23 03:55 31.13211 -122.06031 34229 ft 415 kts 237°
2026-04-23 03:56 31.09748 -122.11423 34230 ft 415 kts 237°
2026-04-23 03:56 31.06289 -122.16801 34232 ft 414 kts 237°
2026-04-23 03:57 31.02823 -122.22182 34234 ft 414 kts 237°
2026-04-23 03:57 30.99363 -122.27547 34235 ft 414 kts 237°
2026-04-23 03:58 30.95901 -122.32906 34237 ft 414 kts 237°
2026-04-23 03:58 30.92454 -122.38237 34238 ft 414 kts 237°
2026-04-23 03:59 30.88985 -122.43593 34239 ft 414 kts 237°
2026-04-23 03:59 30.85518 -122.48939 34234 ft 414 kts 237°
2026-04-23 04:00 30.82050 -122.54279 34248 ft 413 kts 237°
2026-04-23 04:00 30.78578 -122.59618 34234 ft 413 kts 237°
2026-04-23 04:01 30.75111 -122.64944 34243 ft 413 kts 237°
2026-04-23 04:01 30.71634 -122.70276 34235 ft 413 kts 236°
2026-04-23 04:02 30.68164 -122.75591 34246 ft 413 kts 236°
2026-04-23 04:02 30.64694 -122.80898 34249 ft 413 kts 236°
2026-04-23 04:03 30.61240 -122.86174 34241 ft 412 kts 237°
2026-04-23 04:03 30.57770 -122.91469 34252 ft 412 kts 236°
2026-04-23 04:04 30.54301 -122.96753 34255 ft 411 kts 236°
2026-04-23 04:04 30.50805 -123.02001 34247 ft 412 kts 234°
2026-04-23 04:05 30.47058 -123.07036 34249 ft 413 kts 233°
2026-04-23 04:05 30.43251 -123.12012 34246 ft 412 kts 233°
2026-04-23 04:06 30.39483 -123.17007 34250 ft 411 kts 233°
2026-04-23 04:06 30.35737 -123.22025 34249 ft 411 kts 233°
2026-04-23 04:07 30.31996 -123.27043 34246 ft 411 kts 233°
2026-04-23 04:07 30.28280 -123.32021 34249 ft 411 kts 233°
2026-04-23 04:08 30.24540 -123.37020 34251 ft 411 kts 233°
2026-04-23 04:08 30.20799 -123.42014 34249 ft 411 kts 233°
2026-04-23 04:09 30.17053 -123.47008 34253 ft 411 kts 233°
2026-04-23 04:09 30.13309 -123.51994 34254 ft 411 kts 233°
2026-04-23 04:10 30.09564 -123.56975 34250 ft 411 kts 233°
2026-04-23 04:10 30.05819 -123.61949 34253 ft 411 kts 233°
2026-04-23 04:11 30.02061 -123.66934 34254 ft 411 kts 233°
2026-04-23 04:11 29.98308 -123.71906 34253 ft 411 kts 233°
2026-04-23 04:12 29.94538 -123.76896 34254 ft 411 kts 233°
2026-04-23 04:12 29.90799 -123.81836 34252 ft 412 kts 232°
2026-04-23 04:13 29.87026 -123.86816 34253 ft 412 kts 232°
2026-04-23 04:13 29.83252 -123.91790 34252 ft 412 kts 232°
2026-04-23 04:14 29.79471 -123.96770 34256 ft 413 kts 232°
2026-04-23 04:14 29.75691 -124.01740 34257 ft 413 kts 232°
2026-04-23 04:15 29.71903 -124.06714 34256 ft 413 kts 232°
2026-04-23 04:16 29.66215 -124.14173 34260 ft 414 kts 232°
2026-04-23 04:16 29.62417 -124.19145 34260 ft 414 kts 232°
2026-04-23 04:17 29.58619 -124.24111 34260 ft 414 kts 232°
2026-04-23 04:17 29.54829 -124.29061 34253 ft 415 kts 232°
2026-04-23 04:18 29.51017 -124.34034 34258 ft 415 kts 232°
2026-04-23 04:18 29.47191 -124.39018 34260 ft 415 kts 232°
2026-04-23 04:19 29.43372 -124.43987 34261 ft 416 kts 232°
2026-04-23 04:19 29.40188 -124.48125 34261 ft 416 kts 232°
2026-04-23 04:20 29.36358 -124.53097 34263 ft 416 kts 232°
2026-04-23 04:20 29.32519 -124.58075 34262 ft 417 kts 232°
2026-04-23 04:21 29.28682 -124.63043 34261 ft 417 kts 232°
2026-04-23 04:21 29.24828 -124.68028 34265 ft 417 kts 232°
2026-04-23 04:22 29.21004 -124.72968 34260 ft 417 kts 232°
2026-04-23 04:22 29.17144 -124.77947 34258 ft 417 kts 232°
2026-04-23 04:23 29.13287 -124.82919 34260 ft 418 kts 232°
2026-04-23 04:23 29.09420 -124.87895 34264 ft 418 kts 232°
2026-04-23 04:24 29.05558 -124.92861 34264 ft 418 kts 232°
2026-04-23 04:24 29.01687 -124.97831 34261 ft 418 kts 232°
2026-04-23 04:25 28.98220 -125.03132 34256 ft 415 kts 238°
2026-04-23 04:25 28.95052 -125.08649 34261 ft 415 kts 239°
2026-04-23 04:26 28.91950 -125.14157 34258 ft 415 kts 239°
2026-04-23 04:26 28.88818 -125.19702 34258 ft 416 kts 239°
2026-04-23 04:27 28.85672 -125.25242 34262 ft 416 kts 239°
2026-04-23 04:27 28.82519 -125.30776 34260 ft 416 kts 239°
2026-04-23 04:28 28.77785 -125.39072 34260 ft 416 kts 239°
2026-04-23 04:28 28.74625 -125.44600 34260 ft 416 kts 239°
2026-04-23 04:29 28.71456 -125.50139 34258 ft 417 kts 239°
2026-04-23 04:29 28.68290 -125.55663 34257 ft 417 kts 239°
2026-04-23 04:30 28.65117 -125.61193 34262 ft 417 kts 239°
2026-04-23 04:30 28.61938 -125.66725 34261 ft 417 kts 239°
2026-04-23 04:31 28.58783 -125.72210 34258 ft 417 kts 239°
2026-04-23 04:31 28.55596 -125.77743 34258 ft 418 kts 239°
2026-04-23 04:32 28.52410 -125.83267 34257 ft 418 kts 239°
2026-04-23 04:32 28.49218 -125.88793 34258 ft 418 kts 239°
2026-04-23 04:33 28.46044 -125.94282 34260 ft 418 kts 239°
2026-04-23 04:33 28.42848 -125.99801 34264 ft 418 kts 239°
2026-04-23 04:34 28.39652 -126.05314 34261 ft 418 kts 239°
2026-04-23 04:34 28.36451 -126.10827 34268 ft 418 kts 239°
2026-04-23 04:35 28.33248 -126.16337 34265 ft 418 kts 239°
2026-04-23 04:35 28.30039 -126.21850 34266 ft 418 kts 239°
2026-04-23 04:36 28.26840 -126.27353 34271 ft 416 kts 236°
2026-04-23 04:36 28.23681 -126.32775 34263 ft 409 kts 236°
2026-04-23 04:37 28.20556 -126.38110 34267 ft 409 kts 236°
2026-04-23 04:37 28.17390 -126.43514 34265 ft 409 kts 236°
2026-04-23 04:38 28.14265 -126.48848 34264 ft 409 kts 236°
2026-04-23 04:38 28.11114 -126.54221 34259 ft 409 kts 236°
2026-04-23 04:39 28.07964 -126.59585 34267 ft 409 kts 236°
2026-04-23 04:39 28.04808 -126.64953 34266 ft 409 kts 236°
2026-04-23 04:40 28.01651 -126.70315 34261 ft 409 kts 236°
2026-04-23 04:40 27.98491 -126.75676 34263 ft 409 kts 235°
2026-04-23 04:41 27.95327 -126.81038 34263 ft 409 kts 235°
2026-04-23 04:41 27.92163 -126.86392 34263 ft 409 kts 235°
2026-04-23 04:42 27.89014 -126.91715 34262 ft 410 kts 235°
2026-04-23 04:42 27.85844 -126.97067 34264 ft 410 kts 235°
2026-04-23 04:43 27.82666 -127.02424 34266 ft 410 kts 235°
2026-04-23 04:43 27.79492 -127.07771 34267 ft 410 kts 235°
2026-04-23 04:44 27.76311 -127.13121 34262 ft 410 kts 235°
2026-04-23 04:44 27.73130 -127.18464 34266 ft 410 kts 235°
2026-04-23 04:45 27.69947 -127.23805 34263 ft 410 kts 235°
2026-04-23 04:45 27.66761 -127.29143 34265 ft 410 kts 235°
2026-04-23 04:46 27.63588 -127.34454 34263 ft 410 kts 235°
2026-04-23 04:46 27.60397 -127.39789 34261 ft 410 kts 235°
2026-04-23 04:47 27.57202 -127.45124 34264 ft 410 kts 234°
2026-04-23 04:47 27.54001 -127.50461 34263 ft 411 kts 234°
2026-04-23 04:48 27.50794 -127.55802 34263 ft 411 kts 234°
2026-04-23 04:48 27.47592 -127.61128 34260 ft 411 kts 234°
2026-04-23 04:49 27.44377 -127.66471 34259 ft 412 kts 234°
2026-04-23 04:49 27.41181 -127.71775 34259 ft 412 kts 234°
2026-04-23 04:50 27.37960 -127.77113 34265 ft 412 kts 234°
2026-04-23 04:50 27.34737 -127.82449 34260 ft 412 kts 234°
2026-04-23 04:51 27.31509 -127.87786 34257 ft 412 kts 234°
2026-04-23 04:51 27.28280 -127.93118 34255 ft 412 kts 234°
2026-04-23 04:52 27.25051 -127.98444 34259 ft 412 kts 234°
2026-04-23 04:52 27.21831 -128.03749 34258 ft 413 kts 234°
2026-04-23 04:53 27.18592 -128.09079 34255 ft 413 kts 234°
2026-04-23 04:53 27.15355 -128.14399 34257 ft 413 kts 234°
2026-04-23 04:54 27.12108 -128.19730 34259 ft 413 kts 234°
2026-04-23 04:54 27.08863 -128.25051 34257 ft 413 kts 233°
2026-04-23 04:55 27.05629 -128.30346 34256 ft 414 kts 233°
2026-04-23 04:55 27.02377 -128.35666 34255 ft 414 kts 233°
2026-04-23 04:56 26.99114 -128.40997 34259 ft 414 kts 233°
2026-04-23 04:56 26.95853 -128.46318 34257 ft 414 kts 233°
2026-04-23 04:57 26.92581 -128.51651 34252 ft 414 kts 233°
2026-04-23 04:57 26.89317 -128.56965 34256 ft 414 kts 233°
2026-04-23 04:58 26.86043 -128.62288 34257 ft 414 kts 233°
2026-04-23 04:58 26.82795 -128.67563 34252 ft 414 kts 233°
2026-04-23 04:59 26.79518 -128.72880 34258 ft 414 kts 233°
2026-04-23 04:59 26.76238 -128.78193 34256 ft 414 kts 233°
2026-04-23 05:00 26.72957 -128.83503 34251 ft 414 kts 233°
2026-04-23 05:00 26.69676 -128.88806 34254 ft 414 kts 233°
2026-04-23 05:01 26.66387 -128.94117 34255 ft 414 kts 232°
2026-04-23 05:01 26.63128 -128.99372 34255 ft 414 kts 232°
2026-04-23 05:02 26.59840 -129.04667 34259 ft 414 kts 232°
2026-04-23 05:02 26.56559 -129.09947 34254 ft 414 kts 232°
2026-04-23 05:03 26.53257 -129.15254 34253 ft 414 kts 232°
2026-04-23 05:03 26.49972 -129.20527 34260 ft 414 kts 232°
2026-04-23 05:04 26.46678 -129.25809 34263 ft 414 kts 232°
2026-04-23 05:04 26.43407 -129.31045 34254 ft 415 kts 232°
2026-04-23 05:05 26.40083 -129.36362 34254 ft 415 kts 232°
2026-04-23 05:05 26.36808 -129.41594 34253 ft 414 kts 232°
2026-04-23 05:06 26.33502 -129.46870 34251 ft 414 kts 232°
2026-04-23 05:06 26.30202 -129.52132 34250 ft 414 kts 232°
2026-04-23 05:07 26.26898 -129.57392 34251 ft 414 kts 232°
2026-04-23 05:07 26.23594 -129.62647 34252 ft 414 kts 232°
2026-04-23 05:08 26.20850 -129.67006 34251 ft 414 kts 232°
2026-04-23 05:08 26.17543 -129.72255 34252 ft 413 kts 231°
2026-04-23 05:09 26.13706 -129.78336 34253 ft 413 kts 231°
2026-04-23 05:09 26.10936 -129.82722 34254 ft 412 kts 231°
2026-04-23 05:10 26.07658 -129.87906 34254 ft 412 kts 231°
2026-04-23 05:10 26.04356 -129.93123 34251 ft 412 kts 231°
2026-04-23 05:11 26.01056 -129.98329 34248 ft 411 kts 231°
2026-04-23 05:11 25.97819 -130.03576 34251 ft 412 kts 233°
2026-04-23 05:12 25.94779 -130.08986 34245 ft 412 kts 234°
2026-04-23 05:12 25.91765 -130.14397 34245 ft 411 kts 234°
2026-04-23 05:13 25.88740 -130.19742 34246 ft 410 kts 234°
2026-04-23 05:14 25.84149 -130.27767 34247 ft 410 kts 234°
2026-04-23 05:14 25.81086 -130.33108 34244 ft 409 kts 234°
2026-04-23 05:15 25.78026 -130.38441 34243 ft 409 kts 234°
2026-04-23 05:15 25.74973 -130.43758 34240 ft 409 kts 234°
2026-04-23 05:16 25.71919 -130.49071 34240 ft 409 kts 234°
2026-04-23 05:16 25.68857 -130.54391 34243 ft 409 kts 234°
2026-04-23 05:17 25.65817 -130.59666 34241 ft 409 kts 234°
2026-04-23 05:17 25.62753 -130.64977 34239 ft 409 kts 234°
2026-04-23 05:18 25.59685 -130.70289 34238 ft 409 kts 234°
2026-04-23 05:18 25.56610 -130.75607 34236 ft 409 kts 234°
2026-04-23 05:19 25.53537 -130.80916 34239 ft 409 kts 234°
2026-04-23 05:19 25.50459 -130.86228 34238 ft 409 kts 234°
2026-04-23 05:20 25.47382 -130.91531 34242 ft 410 kts 235°
2026-04-23 05:20 25.44297 -130.96843 34236 ft 410 kts 235°
2026-04-23 05:21 25.41211 -131.02149 34237 ft 410 kts 235°
2026-04-23 05:21 25.38138 -131.07428 34236 ft 411 kts 235°
2026-04-23 05:22 25.35037 -131.12750 34240 ft 411 kts 235°
2026-04-23 05:22 25.31931 -131.18074 34235 ft 412 kts 235°
2026-04-23 05:23 25.28820 -131.23401 34236 ft 413 kts 235°
2026-04-23 05:23 25.25694 -131.28745 34237 ft 414 kts 236°
2026-04-23 05:24 25.22561 -131.34098 34235 ft 416 kts 236°
2026-04-23 05:24 25.19413 -131.39469 34232 ft 417 kts 236°
2026-04-23 05:25 25.16255 -131.44852 34233 ft 418 kts 236°
2026-04-23 05:25 25.13089 -131.50241 34228 ft 418 kts 236°
2026-04-23 05:26 25.09925 -131.55622 34229 ft 419 kts 236°
2026-04-23 05:26 25.06744 -131.61024 34230 ft 420 kts 236°
2026-04-23 05:27 25.03584 -131.66386 34227 ft 420 kts 236°
2026-04-23 05:27 25.00391 -131.71796 34226 ft 421 kts 236°
2026-04-23 05:28 24.97200 -131.77198 34227 ft 421 kts 236°
2026-04-23 05:28 24.94005 -131.82602 34225 ft 421 kts 237°
2026-04-23 05:29 24.90803 -131.88010 34226 ft 421 kts 237°
2026-04-23 05:29 24.87599 -131.93417 34226 ft 421 kts 237°
2026-04-23 05:30 24.84389 -131.98826 34224 ft 422 kts 237°
2026-04-23 05:30 24.81177 -132.04232 34228 ft 422 kts 237°
2026-04-23 05:31 24.77983 -132.09603 34222 ft 422 kts 237°
2026-04-23 05:31 24.74762 -132.15012 34224 ft 423 kts 237°
2026-04-23 05:32 24.71531 -132.20433 34222 ft 424 kts 237°
2026-04-23 05:32 24.68289 -132.25866 34224 ft 425 kts 237°
2026-04-23 05:33 24.65048 -132.31291 34218 ft 425 kts 237°
2026-04-23 05:33 24.61808 -132.36707 34220 ft 426 kts 237°
2026-04-23 05:34 24.58546 -132.42155 34222 ft 427 kts 237°
2026-04-23 05:34 24.55274 -132.47614 34223 ft 428 kts 237°
2026-04-23 05:35 24.51995 -132.53078 34221 ft 429 kts 237°
2026-04-23 05:35 24.48712 -132.58542 34221 ft 429 kts 237°
2026-04-23 05:36 24.45422 -132.64012 34218 ft 430 kts 237°
2026-04-23 05:36 24.42116 -132.69503 34220 ft 430 kts 237°
2026-04-23 05:37 24.38814 -132.74981 34222 ft 430 kts 237°
2026-04-23 05:37 24.35510 -132.80456 34220 ft 431 kts 237°
2026-04-23 05:38 24.32214 -132.85912 34221 ft 431 kts 237°
2026-04-23 05:38 24.28896 -132.91398 34215 ft 431 kts 237°
2026-04-23 05:39 24.25579 -132.96877 34215 ft 432 kts 237°
2026-04-23 05:39 24.22252 -133.02366 34218 ft 432 kts 237°
2026-04-23 05:40 24.18930 -133.07839 34220 ft 432 kts 237°
2026-04-23 05:40 24.15589 -133.13339 34221 ft 433 kts 237°
2026-04-23 05:41 24.12246 -133.18836 34216 ft 434 kts 237°
2026-04-23 05:41 24.08917 -133.24303 34214 ft 434 kts 237°
2026-04-23 05:42 24.05564 -133.29804 34223 ft 435 kts 237°
2026-04-23 05:42 24.02199 -133.35319 34207 ft 435 kts 237°
2026-04-23 05:43 23.98833 -133.40830 34222 ft 436 kts 237°
2026-04-23 05:43 23.95462 -133.46342 34219 ft 436 kts 237°
2026-04-23 05:44 23.92091 -133.51848 34215 ft 437 kts 237°
2026-04-23 05:44 23.88702 -133.57377 34216 ft 437 kts 237°
2026-04-23 05:45 23.85332 -133.62868 34218 ft 437 kts 237°
2026-04-23 05:45 23.81941 -133.68390 34215 ft 438 kts 237°
2026-04-23 05:46 23.78545 -133.73911 34219 ft 438 kts 237°
2026-04-23 05:46 23.75138 -133.79445 34213 ft 439 kts 237°
2026-04-23 05:47 23.71726 -133.84982 34212 ft 439 kts 237°
2026-04-23 05:47 23.68310 -133.90518 34213 ft 440 kts 237°
2026-04-23 05:48 23.64885 -133.96065 34213 ft 441 kts 237°
2026-04-23 05:48 23.61480 -134.01571 34211 ft 441 kts 237°
2026-04-23 05:49 23.58052 -134.07109 34208 ft 441 kts 237°
2026-04-23 05:49 23.54613 -134.12658 34211 ft 442 kts 237°
2026-04-23 05:50 23.51175 -134.18200 34209 ft 442 kts 237°
2026-04-23 05:50 23.47721 -134.23761 34207 ft 442 kts 237°
2026-04-23 05:51 23.44271 -134.29311 34206 ft 443 kts 237°
2026-04-23 05:51 23.40812 -134.34868 34210 ft 443 kts 237°
2026-04-23 05:52 23.37351 -134.40422 34203 ft 444 kts 237°
2026-04-23 05:52 23.33875 -134.45995 34207 ft 444 kts 237°
2026-04-23 05:53 23.30424 -134.51521 34206 ft 445 kts 237°
2026-04-23 05:53 23.26945 -134.57087 34202 ft 445 kts 237°
2026-04-23 05:54 23.23462 -134.62652 34199 ft 445 kts 237°
2026-04-23 05:54 23.19975 -134.68219 34199 ft 445 kts 237°
2026-04-23 05:55 23.16483 -134.73788 34201 ft 446 kts 237°
2026-04-23 05:55 23.13570 -134.78428 34196 ft 446 kts 237°
2026-04-23 05:56 23.10078 -134.83984 34204 ft 446 kts 237°
2026-04-23 05:56 23.06006 -134.90458 34198 ft 446 kts 237°
2026-04-23 05:57 23.03094 -134.95082 34192 ft 447 kts 237°
2026-04-23 05:57 22.99464 -135.00623 34194 ft 448 kts 233°
2026-04-23 05:58 22.95569 -135.05832 34198 ft 448 kts 232°
2026-04-23 05:58 22.91572 -135.11048 34197 ft 449 kts 232°
2026-04-23 05:59 22.87576 -135.16245 34193 ft 449 kts 232°
2026-04-23 05:59 22.83577 -135.21454 34183 ft 449 kts 232°
2026-04-23 06:00 22.79581 -135.26663 34190 ft 449 kts 232°
2026-04-23 06:00 22.75606 -135.31841 34198 ft 449 kts 232°
2026-04-23 06:01 22.71607 -135.37045 34179 ft 449 kts 232°
2026-04-23 06:01 22.67597 -135.42257 34188 ft 450 kts 232°
2026-04-23 06:02 22.63591 -135.47458 34183 ft 450 kts 232°
2026-04-23 06:02 22.59603 -135.52631 34183 ft 450 kts 232°
2026-04-23 06:03 22.55585 -135.57837 34184 ft 450 kts 232°
2026-04-23 06:03 22.51568 -135.63037 34180 ft 450 kts 232°
2026-04-23 06:04 22.47547 -135.68238 34182 ft 450 kts 232°
2026-04-23 06:04 22.43519 -135.73444 34175 ft 451 kts 232°
2026-04-23 06:05 22.39490 -135.78643 34172 ft 451 kts 232°
2026-04-23 06:05 22.35453 -135.83849 34173 ft 452 kts 232°
2026-04-23 06:06 22.31435 -135.89024 34171 ft 452 kts 232°
2026-04-23 06:06 22.27393 -135.94226 34171 ft 453 kts 232°
2026-04-23 06:07 22.23342 -135.99434 34167 ft 453 kts 232°
2026-04-23 06:07 22.19278 -136.04654 34171 ft 454 kts 232°
2026-04-23 06:08 22.15213 -136.09869 34167 ft 454 kts 232°
2026-04-23 06:08 22.11142 -136.15088 34168 ft 455 kts 232°
2026-04-23 06:09 22.07073 -136.20298 34167 ft 455 kts 232°
2026-04-23 06:09 22.03009 -136.25497 34165 ft 455 kts 232°
2026-04-23 06:10 21.98925 -136.30716 34165 ft 456 kts 232°
2026-04-23 06:10 21.94828 -136.35946 34167 ft 456 kts 232°
2026-04-23 06:11 21.90738 -136.41163 34165 ft 456 kts 232°
2026-04-23 06:11 21.86640 -136.46385 34162 ft 456 kts 232°
2026-04-23 06:12 21.82544 -136.51599 34163 ft 457 kts 232°
2026-04-23 06:12 21.76383 -136.59433 34163 ft 457 kts 232°
2026-04-23 06:13 21.72293 -136.64626 34165 ft 457 kts 232°
2026-04-23 06:13 21.68179 -136.69846 34159 ft 458 kts 232°
2026-04-23 06:14 21.64055 -136.75073 34157 ft 458 kts 232°
2026-04-23 06:14 21.59925 -136.80303 34163 ft 459 kts 232°
2026-04-23 06:15 21.55786 -136.85539 34161 ft 459 kts 232°
2026-04-23 06:15 21.51652 -136.90763 34157 ft 459 kts 232°
2026-04-23 06:16 21.47511 -136.95992 34161 ft 460 kts 232°
2026-04-23 06:16 21.43388 -137.01193 34158 ft 460 kts 232°
2026-04-23 06:17 21.39230 -137.06432 34156 ft 461 kts 232°
2026-04-23 06:17 21.35068 -137.11672 34156 ft 461 kts 232°
2026-04-23 06:18 21.30904 -137.16909 34156 ft 462 kts 232°
2026-04-23 06:18 21.26730 -137.22154 34158 ft 462 kts 232°
2026-04-23 06:19 21.22557 -137.27393 34155 ft 462 kts 232°
2026-04-23 06:19 21.18373 -137.32641 34157 ft 463 kts 231°
2026-04-23 06:20 21.14191 -137.37881 34158 ft 463 kts 231°
2026-04-23 06:20 21.10004 -137.43123 34156 ft 464 kts 231°
2026-04-23 06:21 21.05831 -137.48340 34155 ft 463 kts 231°
2026-04-23 06:21 21.01632 -137.53586 34151 ft 463 kts 231°
2026-04-23 06:22 20.97441 -137.58817 34151 ft 463 kts 231°
2026-04-23 06:22 20.93247 -137.64047 34151 ft 462 kts 231°
2026-04-23 06:23 20.89054 -137.69272 34150 ft 462 kts 231°
2026-04-23 06:23 20.84889 -137.74455 34147 ft 463 kts 231°
2026-04-23 06:24 20.80668 -137.79704 34147 ft 463 kts 231°
2026-04-23 06:24 20.76467 -137.84923 34146 ft 463 kts 231°
2026-04-23 06:25 20.72265 -137.90139 34144 ft 463 kts 231°
2026-04-23 06:25 20.68084 -137.95323 34143 ft 463 kts 231°
2026-04-23 06:26 20.63869 -138.00546 34141 ft 464 kts 231°
2026-04-23 06:26 20.59656 -138.05761 34141 ft 464 kts 231°
2026-04-23 06:27 20.55435 -138.10982 34143 ft 465 kts 231°
2026-04-23 06:27 20.51208 -138.16204 34142 ft 465 kts 231°
2026-04-23 06:28 20.46981 -138.21420 34140 ft 465 kts 231°
2026-04-23 06:28 20.42753 -138.26635 34142 ft 465 kts 231°
2026-04-23 06:29 20.38521 -138.31849 34138 ft 465 kts 231°
2026-04-23 06:29 20.34295 -138.37052 34138 ft 465 kts 231°
2026-04-23 06:30 20.30058 -138.42262 34142 ft 465 kts 231°
2026-04-23 06:30 20.25831 -138.47456 34136 ft 464 kts 231°
2026-04-23 06:31 20.21597 -138.52654 34138 ft 464 kts 231°
2026-04-23 06:31 20.17369 -138.57840 34129 ft 464 kts 231°
2026-04-23 06:32 20.13140 -138.63022 34139 ft 463 kts 231°
2026-04-23 06:32 20.08941 -138.68163 34135 ft 463 kts 231°
2026-04-23 06:33 20.04704 -138.73346 34129 ft 463 kts 231°
2026-04-23 06:33 20.00479 -138.78510 34130 ft 463 kts 231°
2026-04-23 06:34 19.96241 -138.83685 34129 ft 463 kts 231°
2026-04-23 06:34 19.92010 -138.88847 34133 ft 463 kts 231°
2026-04-23 06:35 19.87774 -138.94009 34131 ft 464 kts 231°
2026-04-23 06:35 19.83538 -138.99169 34129 ft 464 kts 231°
2026-04-23 06:36 19.79282 -139.04346 34131 ft 464 kts 231°
2026-04-23 06:36 19.75069 -139.09468 34133 ft 464 kts 230°
2026-04-23 06:37 19.70812 -139.14639 34127 ft 464 kts 230°
2026-04-23 06:37 19.66552 -139.19809 34127 ft 465 kts 230°
2026-04-23 06:38 19.62293 -139.24973 34126 ft 465 kts 230°
2026-04-23 06:38 19.58027 -139.30141 34126 ft 465 kts 230°
2026-04-23 06:39 19.53759 -139.35306 34125 ft 465 kts 230°
2026-04-23 06:39 19.49516 -139.40438 34124 ft 465 kts 230°
2026-04-23 06:40 19.45239 -139.45605 34123 ft 465 kts 230°
2026-04-23 06:40 19.40970 -139.50758 34126 ft 465 kts 230°
2026-04-23 06:41 19.36698 -139.55911 34120 ft 465 kts 230°
2026-04-23 06:41 19.32427 -139.61059 34120 ft 465 kts 230°
2026-04-23 06:42 19.28157 -139.66200 34125 ft 464 kts 230°
2026-04-23 06:42 19.23898 -139.71323 34121 ft 464 kts 230°
2026-04-23 06:43 19.19655 -139.76423 34121 ft 464 kts 230°
2026-04-23 06:43 19.16077 -139.80721 34120 ft 464 kts 230°
2026-04-23 06:44 19.11841 -139.85805 34119 ft 464 kts 230°
2026-04-23 06:44 19.07574 -139.90921 34117 ft 464 kts 230°
2026-04-23 06:45 19.03306 -139.96035 34115 ft 464 kts 229°
2026-04-23 06:45 18.99035 -140.01140 34116 ft 464 kts 229°
2026-04-23 06:46 18.94486 -140.06000 34113 ft 464 kts 225°
2026-04-23 06:46 18.89807 -140.10699 34112 ft 464 kts 225°
2026-04-23 06:47 18.85155 -140.15429 34115 ft 464 kts 225°
2026-04-23 06:47 18.80536 -140.20199 34116 ft 464 kts 226°
2026-04-23 06:48 18.75954 -140.24953 34110 ft 464 kts 226°
2026-04-23 06:48 18.71345 -140.29734 34113 ft 465 kts 226°
2026-04-23 06:49 18.66725 -140.34516 34114 ft 465 kts 225°
2026-04-23 06:49 18.62105 -140.39294 34114 ft 465 kts 225°
2026-04-23 06:50 18.57475 -140.44077 34111 ft 466 kts 226°
2026-04-23 06:50 18.52845 -140.48857 34109 ft 466 kts 226°
2026-04-23 06:51 18.48211 -140.53637 34115 ft 466 kts 226°
2026-04-23 06:51 18.43575 -140.58415 34101 ft 466 kts 226°
2026-04-23 06:52 18.38962 -140.63166 34115 ft 467 kts 226°
2026-04-23 06:52 18.34316 -140.67947 34111 ft 467 kts 226°
2026-04-23 06:53 18.29666 -140.72729 34110 ft 467 kts 226°
2026-04-23 06:53 18.25019 -140.77503 34109 ft 467 kts 226°
2026-04-23 06:54 18.20361 -140.82285 34107 ft 467 kts 226°
2026-04-23 06:54 18.15704 -140.87062 34107 ft 467 kts 226°
2026-04-23 06:55 18.11047 -140.91836 34100 ft 468 kts 226°
2026-04-23 06:55 18.06403 -140.96593 34096 ft 468 kts 226°
2026-04-23 06:56 18.01735 -141.01371 34103 ft 469 kts 226°
2026-04-23 06:56 17.97056 -141.06155 34103 ft 469 kts 226°
2026-04-23 06:57 17.92375 -141.10939 34097 ft 469 kts 226°
2026-04-23 06:57 17.87719 -141.15692 34101 ft 469 kts 226°
2026-04-23 06:58 17.83033 -141.20473 34098 ft 470 kts 226°
2026-04-23 06:58 17.78340 -141.25258 34099 ft 471 kts 226°
2026-04-23 06:59 17.73634 -141.30052 34102 ft 471 kts 226°
2026-04-23 06:59 17.68932 -141.34839 34098 ft 471 kts 226°
2026-04-23 07:00 17.64225 -141.39625 34095 ft 471 kts 227°
2026-04-23 07:00 17.59509 -141.44419 34098 ft 472 kts 227°
2026-04-23 07:01 17.54813 -141.49188 34096 ft 473 kts 227°
2026-04-23 07:01 17.50083 -141.53988 34095 ft 474 kts 227°
2026-04-23 07:02 17.45337 -141.58800 34092 ft 474 kts 227°
2026-04-23 07:02 17.40590 -141.63609 34095 ft 474 kts 227°
2026-04-23 07:03 17.35844 -141.68414 34092 ft 475 kts 227°
2026-04-23 07:03 17.31081 -141.73233 34094 ft 476 kts 227°
2026-04-23 07:04 17.26321 -141.78045 34096 ft 476 kts 227°
2026-04-23 07:04 17.21557 -141.82857 34091 ft 476 kts 227°
2026-04-23 07:05 17.16784 -141.87675 34086 ft 477 kts 227°
2026-04-23 07:05 17.12007 -141.92494 34087 ft 477 kts 227°
2026-04-23 07:06 17.07252 -141.97287 34087 ft 478 kts 227°
2026-04-23 07:06 17.02459 -142.02114 34094 ft 478 kts 227°
2026-04-23 07:07 16.97661 -142.06942 34084 ft 479 kts 227°
2026-04-23 07:07 16.92857 -142.11772 34088 ft 479 kts 227°
2026-04-23 07:08 16.88048 -142.16605 34087 ft 480 kts 227°
2026-04-23 07:08 16.83237 -142.21436 34089 ft 480 kts 227°
2026-04-23 07:09 16.78413 -142.26276 34084 ft 481 kts 227°
2026-04-23 07:09 16.73620 -142.31081 34085 ft 481 kts 227°
2026-04-23 07:10 16.68790 -142.35920 34086 ft 482 kts 227°
2026-04-23 07:10 16.63951 -142.40765 34086 ft 482 kts 227°
2026-04-23 07:11 16.59114 -142.45604 34092 ft 482 kts 227°
2026-04-23 07:12 16.51844 -142.52871 34082 ft 483 kts 227°
2026-04-23 07:12 16.46985 -142.57723 34086 ft 484 kts 227°
2026-04-23 07:13 16.42117 -142.62580 34084 ft 484 kts 227°
2026-04-23 07:13 16.37246 -142.67437 34082 ft 485 kts 227°
2026-04-23 07:14 16.32374 -142.72291 34086 ft 485 kts 226°
2026-04-23 07:14 16.27528 -142.77116 34083 ft 485 kts 226°
2026-04-23 07:15 16.22650 -142.81970 34082 ft 485 kts 226°
2026-04-23 07:15 16.17763 -142.86829 34085 ft 485 kts 226°
2026-04-23 07:16 16.12885 -142.91674 34080 ft 485 kts 226°
2026-04-23 07:16 16.07992 -142.96532 34079 ft 486 kts 226°
2026-04-23 07:17 16.03112 -143.01374 34081 ft 486 kts 226°
2026-04-23 07:17 15.98210 -143.06235 34076 ft 486 kts 226°
2026-04-23 07:18 15.93348 -143.11051 34079 ft 486 kts 226°
2026-04-23 07:18 15.88448 -143.15902 34080 ft 486 kts 226°
2026-04-23 07:19 15.83555 -143.20741 34078 ft 486 kts 226°
2026-04-23 07:19 15.78653 -143.25588 34078 ft 486 kts 226°
2026-04-23 07:20 15.73753 -143.30429 34076 ft 486 kts 226°
2026-04-23 07:20 15.68841 -143.35278 34077 ft 486 kts 226°
2026-04-23 07:21 15.63942 -143.40111 34076 ft 487 kts 226°
2026-04-23 07:21 15.59028 -143.44955 34075 ft 487 kts 226°
2026-04-23 07:22 15.54150 -143.49761 34074 ft 487 kts 226°
2026-04-23 07:22 15.49229 -143.54606 34074 ft 487 kts 225°
2026-04-23 07:23 15.44317 -143.59438 34073 ft 487 kts 225°
2026-04-23 07:23 15.39404 -143.64268 34072 ft 487 kts 225°
2026-04-23 07:24 15.34483 -143.69102 34073 ft 487 kts 225°
2026-04-23 07:24 15.29594 -143.73902 34069 ft 487 kts 225°
2026-04-23 07:25 15.24675 -143.78728 34070 ft 487 kts 225°
2026-04-23 07:25 15.19754 -143.83553 34071 ft 487 kts 225°
2026-04-23 07:26 15.14838 -143.88369 34065 ft 487 kts 225°
2026-04-23 07:26 15.09914 -143.93191 34063 ft 487 kts 225°
2026-04-23 07:27 15.04989 -143.98010 34066 ft 487 kts 225°
2026-04-23 07:27 15.00062 -144.02827 34069 ft 487 kts 225°
2026-04-23 07:28 14.95140 -144.07636 34069 ft 487 kts 225°
2026-04-23 07:28 14.90211 -144.12450 34069 ft 487 kts 225°
2026-04-23 07:29 14.85314 -144.17228 34068 ft 487 kts 225°
2026-04-23 07:29 14.80387 -144.22033 34069 ft 487 kts 225°
2026-04-23 07:30 14.75462 -144.26833 34063 ft 487 kts 225°
2026-04-23 07:30 14.70525 -144.31642 34061 ft 487 kts 225°
2026-04-23 07:31 14.65601 -144.36434 34061 ft 486 kts 225°
2026-04-23 07:31 14.60703 -144.41199 34061 ft 486 kts 225°
2026-04-23 07:32 14.55783 -144.45981 34062 ft 486 kts 225°
2026-04-23 07:32 14.50855 -144.50768 34061 ft 486 kts 225°
2026-04-23 07:33 14.46759 -144.54745 34058 ft 486 kts 225°
2026-04-23 07:33 14.41827 -144.59531 34057 ft 486 kts 224°
2026-04-23 07:34 14.36902 -144.64306 34058 ft 486 kts 224°
2026-04-23 07:34 14.31975 -144.69081 34060 ft 486 kts 224°
2026-04-23 07:35 14.27045 -144.73855 34058 ft 486 kts 224°
2026-04-23 07:35 14.22120 -144.78622 34057 ft 486 kts 224°
2026-04-23 07:36 14.17224 -144.83358 34056 ft 486 kts 224°
2026-04-23 07:36 14.12255 -144.88162 34057 ft 486 kts 224°
2026-04-23 07:37 14.07361 -144.92890 34054 ft 486 kts 224°
2026-04-23 07:37 14.02424 -144.97656 34052 ft 486 kts 224°
2026-04-23 07:38 13.97856 -145.02751 34049 ft 485 kts 231°
2026-04-23 07:38 13.93595 -145.08145 34053 ft 485 kts 232°
2026-04-23 07:39 13.89389 -145.13580 34048 ft 485 kts 232°
2026-04-23 07:39 13.85182 -145.19005 34047 ft 485 kts 232°
2026-04-23 07:40 13.80966 -145.24414 34048 ft 485 kts 232°
2026-04-23 07:40 13.76732 -145.29836 34048 ft 485 kts 232°
2026-04-23 07:41 13.72503 -145.35248 34048 ft 485 kts 232°
2026-04-23 07:41 13.68264 -145.40668 34044 ft 485 kts 232°
2026-04-23 07:42 13.64056 -145.46047 34046 ft 485 kts 232°
2026-04-23 07:42 13.59819 -145.51461 34044 ft 486 kts 232°
2026-04-23 07:43 13.55580 -145.56873 34046 ft 486 kts 232°
2026-04-23 07:43 13.51327 -145.62298 34045 ft 486 kts 232°
2026-04-23 07:44 13.47083 -145.67710 34044 ft 487 kts 232°
2026-04-23 07:44 13.42857 -145.73094 34040 ft 487 kts 232°
2026-04-23 07:45 13.38604 -145.78510 34038 ft 487 kts 232°
2026-04-23 07:45 13.34343 -145.83931 34040 ft 487 kts 232°
2026-04-23 07:46 13.30091 -145.89340 34039 ft 487 kts 232°
2026-04-23 07:46 13.25827 -145.94760 34040 ft 487 kts 232°
2026-04-23 07:47 13.21570 -146.00166 34035 ft 487 kts 232°
2026-04-23 07:47 13.17301 -146.05583 34037 ft 487 kts 232°
2026-04-23 07:48 13.13036 -146.10997 34034 ft 488 kts 232°
2026-04-23 07:48 13.08764 -146.16414 34034 ft 488 kts 232°
2026-04-23 07:49 13.04492 -146.21826 34033 ft 488 kts 232°
2026-04-23 07:49 13.00241 -146.27211 34034 ft 489 kts 232°
2026-04-23 07:50 12.95959 -146.32632 34033 ft 489 kts 232°
2026-04-23 07:50 12.91670 -146.38056 34035 ft 489 kts 232°
2026-04-23 07:51 12.87373 -146.43486 34029 ft 490 kts 232°
2026-04-23 07:51 12.83070 -146.48914 34032 ft 490 kts 232°
2026-04-23 07:52 12.78798 -146.54302 34026 ft 490 kts 232°
2026-04-23 07:52 12.74497 -146.59739 34029 ft 491 kts 233°
2026-04-23 07:53 12.70190 -146.65176 34030 ft 492 kts 232°
2026-04-23 07:53 12.65873 -146.70616 34029 ft 492 kts 233°
2026-04-23 07:54 12.61556 -146.76049 34028 ft 492 kts 232°
2026-04-23 07:54 12.57227 -146.81501 34023 ft 493 kts 233°
2026-04-23 07:55 12.52898 -146.86940 34026 ft 493 kts 233°
2026-04-23 07:55 12.48563 -146.92389 34022 ft 493 kts 233°
2026-04-23 07:56 12.44235 -146.97830 34027 ft 493 kts 233°
2026-04-23 07:56 12.39895 -147.03280 34022 ft 493 kts 233°
2026-04-23 07:57 12.35559 -147.08721 34019 ft 493 kts 233°
2026-04-23 07:57 12.31222 -147.14162 34022 ft 494 kts 233°
2026-04-23 07:58 12.26882 -147.19603 34019 ft 494 kts 233°
2026-04-23 07:58 12.22558 -147.25021 34021 ft 494 kts 233°
2026-04-23 07:59 12.18211 -147.30464 34023 ft 494 kts 233°
2026-04-23 07:59 12.13870 -147.35896 34019 ft 493 kts 233°
2026-04-23 08:00 12.09529 -147.41326 34020 ft 493 kts 233°
2026-04-23 08:00 12.05185 -147.46755 34018 ft 493 kts 233°
2026-04-23 08:01 12.00847 -147.52174 34020 ft 492 kts 233°
2026-04-23 08:01 11.96533 -147.57562 34021 ft 492 kts 232°
2026-04-23 08:02 11.92197 -147.62974 34012 ft 492 kts 232°
2026-04-23 08:02 11.87857 -147.68386 34014 ft 492 kts 232°
2026-04-23 08:03 11.83525 -147.73787 34015 ft 492 kts 232°
2026-04-23 08:03 11.79189 -147.79188 34017 ft 492 kts 232°
2026-04-23 08:04 11.74856 -147.84583 34017 ft 491 kts 232°
2026-04-23 08:04 11.70515 -147.89984 34013 ft 492 kts 232°
2026-04-23 08:05 11.66176 -147.95382 34011 ft 492 kts 232°
2026-04-23 08:05 11.61857 -148.00750 34014 ft 492 kts 232°
2026-04-23 08:06 11.57511 -148.06149 34008 ft 492 kts 232°
2026-04-23 08:06 11.53163 -148.11548 34010 ft 492 kts 232°
2026-04-23 08:07 11.48810 -148.16952 34007 ft 493 kts 232°
2026-04-23 08:07 11.44451 -148.22358 34011 ft 493 kts 232°
2026-04-23 08:08 11.40093 -148.27761 34010 ft 493 kts 232°
2026-04-23 08:08 11.35729 -148.33169 34009 ft 494 kts 232°
2026-04-23 08:09 11.31369 -148.38571 34009 ft 494 kts 232°
2026-04-23 08:09 11.27024 -148.43949 34009 ft 494 kts 232°
2026-04-23 08:10 11.22656 -148.49356 34008 ft 494 kts 232°
2026-04-23 08:10 11.16098 -148.57463 34005 ft 495 kts 232°
2026-04-23 08:11 11.11710 -148.62883 34010 ft 495 kts 232°
2026-04-23 08:11 11.07321 -148.68301 34007 ft 495 kts 232°
2026-04-23 08:12 11.02962 -148.73687 34007 ft 495 kts 232°
2026-04-23 08:12 10.98572 -148.79102 34006 ft 495 kts 232°
2026-04-23 08:13 10.94184 -148.84508 34010 ft 495 kts 232°
2026-04-23 08:13 10.89791 -148.89918 34002 ft 495 kts 232°
2026-04-23 08:14 10.85401 -148.95325 34002 ft 495 kts 232°
2026-04-23 08:14 10.81017 -149.00728 34002 ft 495 kts 232°
2026-04-23 08:15 10.76621 -149.06136 34002 ft 495 kts 232°
2026-04-23 08:15 10.72236 -149.11526 34002 ft 495 kts 232°
2026-04-23 08:16 10.67867 -149.16899 34002 ft 495 kts 232°
2026-04-23 08:16 10.63473 -149.22296 33999 ft 495 kts 232°
2026-04-23 08:17 10.59080 -149.27691 34003 ft 495 kts 232°
2026-04-23 08:17 10.54689 -149.33083 34002 ft 495 kts 232°
2026-04-23 08:18 10.50283 -149.38490 34002 ft 496 kts 232°
2026-04-23 08:18 10.45903 -149.43862 33997 ft 496 kts 232°
2026-04-23 08:19 10.41504 -149.49252 33999 ft 496 kts 232°
2026-04-23 08:19 10.37100 -149.54645 33996 ft 496 kts 232°
2026-04-23 08:20 10.32692 -149.60040 33996 ft 496 kts 232°
2026-04-23 08:20 10.28999 -149.64562 33997 ft 496 kts 232°
2026-04-23 08:21 10.24616 -149.69923 33996 ft 496 kts 232°
2026-04-23 08:21 10.20196 -149.75326 33990 ft 496 kts 232°
2026-04-23 08:22 10.15781 -149.80724 33995 ft 496 kts 232°
2026-04-23 08:22 10.11377 -149.86107 33992 ft 496 kts 232°
2026-04-23 08:23 10.06959 -149.91498 33993 ft 496 kts 232°
2026-04-23 08:23 10.02567 -149.96855 33993 ft 496 kts 232°
2026-04-23 08:24 9.97697 -150.01835 33993 ft 499 kts 223°
2026-04-23 08:24 9.92330 -150.06319 33988 ft 500 kts 221°
2026-04-23 08:25 9.86876 -150.10714 33992 ft 500 kts 220°
2026-04-23 08:25 9.81426 -150.15103 33991 ft 500 kts 221°
2026-04-23 08:26 9.75983 -150.19510 33992 ft 500 kts 221°
2026-04-23 08:26 9.70551 -150.23918 33988 ft 500 kts 221°
2026-04-23 08:27 9.65120 -150.28328 33991 ft 500 kts 221°
2026-04-23 08:27 9.59726 -150.32706 33991 ft 500 kts 221°
2026-04-23 08:28 9.54296 -150.37109 33986 ft 500 kts 221°
2026-04-23 08:28 9.48868 -150.41508 33985 ft 500 kts 221°
2026-04-23 08:29 9.43438 -150.45907 33986 ft 499 kts 221°
2026-04-23 08:29 9.38001 -150.50308 33986 ft 499 kts 221°
2026-04-23 08:30 9.32577 -150.54698 33979 ft 499 kts 221°
2026-04-23 08:30 9.27154 -150.59086 33983 ft 499 kts 221°
2026-04-23 08:31 9.21734 -150.63470 33982 ft 499 kts 221°
2026-04-23 08:31 9.16318 -150.67849 33983 ft 498 kts 221°
2026-04-23 08:32 9.10898 -150.72230 33988 ft 498 kts 221°
2026-04-23 08:32 9.05482 -150.76604 33980 ft 498 kts 221°
2026-04-23 08:33 9.00111 -150.80942 33983 ft 497 kts 221°
2026-04-23 08:33 8.94697 -150.85311 33978 ft 497 kts 221°
2026-04-23 08:34 8.89289 -150.89675 33971 ft 497 kts 221°
2026-04-23 08:34 8.83882 -150.94035 33964 ft 497 kts 221°
2026-04-23 08:35 8.78474 -150.98395 33988 ft 497 kts 221°
2026-04-23 08:35 8.73076 -151.02745 33979 ft 496 kts 221°
2026-04-23 08:36 8.67671 -151.07100 33981 ft 496 kts 221°
2026-04-23 08:36 8.62304 -151.11422 33977 ft 496 kts 221°
2026-04-23 08:37 8.56897 -151.15775 33982 ft 496 kts 221°
2026-04-23 08:37 8.51498 -151.20118 33982 ft 496 kts 221°
2026-04-23 08:38 8.46096 -151.24464 33980 ft 496 kts 221°
2026-04-23 08:38 8.40694 -151.28807 33984 ft 496 kts 221°
2026-04-23 08:39 8.35297 -151.33145 33976 ft 496 kts 221°
2026-04-23 08:39 8.29905 -151.37478 33979 ft 495 kts 221°
2026-04-23 08:40 8.24507 -151.41814 33963 ft 495 kts 221°
2026-04-23 08:40 8.19116 -151.46142 33973 ft 495 kts 221°
2026-04-23 08:41 8.13760 -151.50442 33974 ft 495 kts 221°
2026-04-23 08:41 8.08365 -151.54770 33976 ft 495 kts 221°
2026-04-23 08:42 8.02978 -151.59091 33977 ft 495 kts 221°
2026-04-23 08:42 7.97580 -151.63420 33964 ft 495 kts 221°
2026-04-23 08:43 7.92195 -151.67736 33966 ft 494 kts 221°
2026-04-23 08:43 7.86810 -151.72050 33970 ft 494 kts 221°
2026-04-23 08:44 7.81426 -151.76362 33971 ft 494 kts 221°
2026-04-23 08:44 7.76038 -151.80677 33962 ft 494 kts 221°
2026-04-23 08:45 7.70657 -151.84984 33959 ft 494 kts 221°
2026-04-23 08:45 7.65270 -151.89295 33963 ft 494 kts 221°
2026-04-23 08:46 7.59880 -151.93606 33969 ft 494 kts 221°
2026-04-23 08:46 7.54530 -151.97884 33968 ft 494 kts 221°
2026-04-23 08:47 7.49144 -152.02189 33965 ft 494 kts 221°
2026-04-23 08:47 7.43753 -152.06497 33968 ft 494 kts 222°
2026-04-23 08:48 7.38370 -152.10797 33965 ft 494 kts 222°
2026-04-23 08:48 7.32980 -152.15101 33961 ft 494 kts 222°
2026-04-23 08:49 7.27589 -152.19406 33968 ft 494 kts 222°
2026-04-23 08:49 7.22203 -152.23704 33965 ft 494 kts 222°
2026-04-23 08:50 7.16810 -152.28007 33962 ft 494 kts 222°
2026-04-23 08:50 7.11421 -152.32305 33962 ft 494 kts 222°
2026-04-23 08:51 7.06066 -152.36575 33966 ft 494 kts 222°
2026-04-23 08:51 7.00665 -152.40880 33963 ft 494 kts 222°
2026-04-23 08:52 6.95273 -152.45177 33963 ft 494 kts 223°
2026-04-23 08:52 6.89885 -152.49469 33959 ft 494 kts 223°
2026-04-23 08:53 6.84489 -152.53766 33963 ft 494 kts 223°
2026-04-23 08:53 6.79101 -152.58056 33960 ft 494 kts 223°
2026-04-23 08:54 6.73701 -152.62353 33960 ft 494 kts 223°
2026-04-23 08:54 6.68336 -152.66623 33955 ft 494 kts 223°
2026-04-23 08:55 6.62944 -152.70912 33956 ft 494 kts 223°
2026-04-23 08:55 6.57547 -152.75204 33959 ft 494 kts 223°
2026-04-23 08:56 6.52153 -152.79492 33958 ft 494 kts 223°
2026-04-23 08:56 6.46769 -152.83772 33957 ft 494 kts 223°
2026-04-23 08:57 6.41371 -152.88060 33957 ft 494 kts 223°
2026-04-23 08:57 6.35981 -152.92342 33953 ft 494 kts 223°
2026-04-23 08:58 6.30620 -152.96598 33957 ft 494 kts 223°
2026-04-23 08:58 6.25233 -153.00875 33955 ft 494 kts 223°
2026-04-23 08:59 6.19832 -153.05161 33953 ft 494 kts 224°
2026-04-23 08:59 6.14444 -153.09436 33952 ft 494 kts 224°
2026-04-23 09:00 6.09047 -153.13717 33953 ft 494 kts 224°
2026-04-23 09:00 6.03651 -153.17996 33954 ft 494 kts 224°
2026-04-23 09:01 5.98283 -153.22253 33956 ft 494 kts 224°
2026-04-23 09:01 5.92887 -153.26530 33947 ft 494 kts 224°
2026-04-23 09:02 5.87482 -153.30814 33953 ft 495 kts 224°
2026-04-23 09:02 5.82078 -153.35096 33950 ft 495 kts 224°
2026-04-23 09:03 5.76659 -153.39388 33950 ft 496 kts 224°
2026-04-23 09:03 5.71236 -153.43681 33951 ft 496 kts 224°
2026-04-23 09:04 5.65805 -153.47980 33958 ft 497 kts 224°
2026-04-23 09:04 5.60364 -153.52287 33948 ft 497 kts 224°
2026-04-23 09:05 5.54926 -153.56589 33947 ft 498 kts 224°
2026-04-23 09:05 5.49522 -153.60865 33947 ft 498 kts 224°
2026-04-23 09:06 5.44072 -153.65175 33949 ft 499 kts 224°
2026-04-23 09:06 5.38622 -153.69484 33949 ft 499 kts 224°
2026-04-23 09:07 5.33161 -153.73801 33948 ft 500 kts 224°
2026-04-23 09:07 5.28618 -153.77391 33949 ft 500 kts 224°
2026-04-23 09:08 5.23155 -153.81707 33950 ft 500 kts 223°
2026-04-23 09:08 5.17680 -153.86032 33949 ft 500 kts 223°
2026-04-23 09:09 5.12219 -153.90345 33949 ft 500 kts 223°
2026-04-23 09:09 5.06751 -153.94663 33948 ft 500 kts 223°
2026-04-23 09:10 4.98593 -154.01107 33946 ft 499 kts 223°
2026-04-23 09:11 4.93177 -154.05455 33946 ft 499 kts 224°
2026-04-23 09:11 4.87763 -154.09832 33949 ft 499 kts 224°
2026-04-23 09:12 4.82359 -154.14192 33947 ft 499 kts 223°
2026-04-23 09:12 4.76945 -154.18551 33944 ft 499 kts 223°
2026-04-23 09:13 4.71536 -154.22903 33947 ft 499 kts 223°
2026-04-23 09:13 4.66115 -154.27262 33946 ft 499 kts 223°
2026-04-23 09:14 4.60737 -154.31588 33948 ft 499 kts 223°
2026-04-23 09:14 4.55323 -154.35941 33950 ft 499 kts 223°
2026-04-23 09:15 4.49907 -154.40296 33943 ft 499 kts 223°
2026-04-23 09:15 4.44495 -154.44648 33945 ft 499 kts 222°
2026-04-23 09:16 4.39077 -154.49002 33945 ft 499 kts 222°
2026-04-23 09:16 4.33655 -154.53359 33943 ft 499 kts 222°
2026-04-23 09:17 4.28226 -154.57720 33944 ft 500 kts 221°
2026-04-23 09:17 4.22837 -154.62048 33942 ft 500 kts 221°
2026-04-23 09:18 4.17402 -154.66412 33945 ft 500 kts 221°
2026-04-23 09:18 4.11971 -154.70773 33942 ft 501 kts 221°
2026-04-23 09:19 4.06535 -154.75136 33961 ft 501 kts 221°
2026-04-23 09:19 4.01075 -154.79518 33942 ft 502 kts 221°
2026-04-23 09:20 3.95622 -154.83893 33940 ft 503 kts 221°
2026-04-23 09:20 3.90152 -154.88281 33959 ft 504 kts 221°
2026-04-23 09:21 3.84679 -154.92671 33958 ft 504 kts 221°
2026-04-23 09:21 3.79190 -154.97073 33959 ft 505 kts 221°
2026-04-23 09:22 3.73740 -155.01443 33943 ft 505 kts 221°
2026-04-23 09:22 3.68252 -155.05843 33939 ft 505 kts 221°
2026-04-23 09:23 3.62761 -155.10244 33940 ft 505 kts 221°
2026-04-23 09:23 3.57275 -155.14641 33954 ft 505 kts 221°
2026-04-23 09:24 3.51779 -155.19045 33957 ft 505 kts 221°
2026-04-23 09:24 3.46283 -155.23449 33954 ft 506 kts 221°
2026-04-23 09:25 3.40831 -155.27816 33954 ft 506 kts 221°
2026-04-23 09:25 3.35328 -155.32225 33950 ft 506 kts 221°
2026-04-23 09:26 3.29825 -155.36631 33954 ft 506 kts 221°
2026-04-23 09:26 3.24324 -155.41036 33952 ft 506 kts 221°
2026-04-23 09:27 3.18839 -155.45428 33946 ft 506 kts 221°
2026-04-23 09:27 3.13333 -155.49836 33946 ft 506 kts 221°
2026-04-23 09:28 3.07878 -155.54202 33945 ft 506 kts 221°
2026-04-23 09:28 3.02384 -155.58599 33942 ft 506 kts 221°
2026-04-23 09:29 2.96889 -155.62995 33941 ft 506 kts 221°
2026-04-23 09:29 2.91390 -155.67396 33946 ft 506 kts 221°
2026-04-23 09:30 2.85889 -155.71797 33941 ft 506 kts 221°
2026-04-23 09:30 2.80382 -155.76202 33945 ft 506 kts 221°
2026-04-23 09:31 2.74913 -155.80576 33943 ft 506 kts 221°
2026-04-23 09:31 2.69409 -155.84977 33946 ft 506 kts 221°
2026-04-23 09:32 2.63905 -155.89378 33944 ft 506 kts 221°
2026-04-23 09:32 2.58402 -155.93778 33943 ft 506 kts 221°
2026-04-23 09:33 2.52900 -155.98176 33943 ft 506 kts 221°
2026-04-23 09:33 2.47426 -156.02552 33941 ft 506 kts 221°
2026-04-23 09:34 2.41929 -156.06946 33941 ft 506 kts 221°
2026-04-23 09:34 2.36427 -156.11343 33942 ft 506 kts 221°
2026-04-23 09:35 2.30936 -156.15731 33941 ft 505 kts 221°
2026-04-23 09:35 2.25439 -156.20123 33940 ft 505 kts 221°
2026-04-23 09:36 2.19949 -156.24508 33939 ft 505 kts 221°
2026-04-23 09:36 2.14451 -156.28901 33936 ft 505 kts 221°
2026-04-23 09:37 2.08970 -156.33279 33934 ft 505 kts 221°
2026-04-23 09:37 2.03519 -156.37632 33940 ft 504 kts 221°
2026-04-23 09:38 1.98038 -156.42009 33937 ft 504 kts 222°
2026-04-23 09:38 1.92555 -156.46388 33935 ft 504 kts 222°
2026-04-23 09:39 1.87080 -156.50759 33937 ft 504 kts 222°
2026-04-23 09:39 1.81600 -156.55134 33939 ft 503 kts 222°
2026-04-23 09:40 1.76137 -156.59496 33940 ft 503 kts 222°
2026-04-23 09:40 1.70662 -156.63867 33935 ft 503 kts 222°
2026-04-23 09:41 1.65199 -156.68228 33939 ft 503 kts 222°
2026-04-23 09:41 1.59728 -156.72594 33932 ft 502 kts 222°
2026-04-23 09:42 1.54270 -156.76950 33935 ft 502 kts 222°
2026-04-23 09:42 1.48803 -156.81313 33934 ft 502 kts 222°
2026-04-23 09:43 1.43378 -156.85643 33934 ft 502 kts 222°
2026-04-23 09:43 1.37912 -156.90004 33935 ft 502 kts 222°
2026-04-23 09:44 1.32454 -156.94359 33936 ft 502 kts 222°
2026-04-23 09:44 1.26989 -156.98720 33923 ft 502 kts 222°
2026-04-23 09:45 1.21532 -157.03073 33930 ft 502 kts 222°
2026-04-23 09:45 1.16070 -157.07430 33937 ft 502 kts 222°
2026-04-23 09:46 1.10609 -157.11787 33920 ft 502 kts 222°
2026-04-23 09:46 1.05143 -157.16147 33929 ft 502 kts 222°
2026-04-23 09:47 0.99681 -157.20504 33931 ft 503 kts 221°
2026-04-23 09:47 0.94214 -157.24864 33931 ft 503 kts 221°
2026-04-23 09:48 0.88749 -157.29223 33930 ft 503 kts 221°
2026-04-23 09:48 0.83305 -157.33565 33929 ft 503 kts 221°
2026-04-23 09:49 0.77843 -157.37921 33930 ft 503 kts 221°
2026-04-23 09:49 0.72365 -157.42290 33930 ft 503 kts 221°
2026-04-23 09:50 0.66897 -157.46651 33932 ft 503 kts 221°
2026-04-23 09:50 0.61417 -157.51020 33930 ft 503 kts 221°
2026-04-23 09:51 0.55947 -157.55382 33916 ft 503 kts 221°
2026-04-23 09:51 0.50460 -157.59758 33927 ft 503 kts 221°
2026-04-23 09:52 0.44983 -157.64125 33925 ft 503 kts 221°
2026-04-23 09:52 0.39547 -157.68459 33927 ft 503 kts 221°
2026-04-23 09:53 0.34074 -157.72823 33930 ft 503 kts 221°
2026-04-23 09:53 0.28599 -157.77189 33928 ft 503 kts 221°
2026-04-23 09:54 0.23134 -157.81547 33927 ft 503 kts 221°
2026-04-23 09:54 0.17658 -157.85912 33930 ft 503 kts 221°
2026-04-23 09:55 0.12195 -157.90269 33913 ft 503 kts 221°
2026-04-23 09:55 0.06719 -157.94635 33932 ft 503 kts 221°
2026-04-23 09:56 0.02182 -157.98253 33931 ft 502 kts 221°
2026-04-23 09:56 -0.03287 -158.02617 33929 ft 502 kts 221°
2026-04-23 09:57 -0.08746 -158.06968 33926 ft 502 kts 221°
2026-04-23 09:57 -0.14210 -158.11322 33928 ft 502 kts 221°
2026-04-23 09:58 -0.19672 -158.15677 33916 ft 502 kts 221°
2026-04-23 09:58 -0.25098 -158.20003 33928 ft 501 kts 221°
2026-04-23 09:59 -0.30543 -158.24345 33930 ft 501 kts 221°
2026-04-23 09:59 -0.35999 -158.28695 33915 ft 501 kts 221°
2026-04-23 10:00 -0.41424 -158.33021 33918 ft 500 kts 221°
2026-04-23 10:00 -0.46884 -158.37375 33930 ft 500 kts 221°
2026-04-23 10:01 -0.52330 -158.41717 33930 ft 500 kts 221°
2026-04-23 10:01 -0.57774 -158.46058 33913 ft 500 kts 221°
2026-04-23 10:02 -0.63211 -158.50394 33913 ft 500 kts 221°
2026-04-23 10:02 -0.68645 -158.54727 33929 ft 500 kts 221°
2026-04-23 10:03 -0.74041 -158.59031 33928 ft 500 kts 221°
2026-04-23 10:03 -0.79481 -158.63368 33922 ft 500 kts 221°
2026-04-23 10:04 -0.84920 -158.67706 33926 ft 500 kts 221°
2026-04-23 10:04 -0.90355 -158.72041 33914 ft 500 kts 221°
2026-04-23 10:05 -0.95786 -158.76373 33939 ft 500 kts 221°
2026-04-23 10:05 -1.01223 -158.80710 33938 ft 500 kts 221°
2026-04-23 10:06 -1.06653 -158.85042 33936 ft 499 kts 221°
2026-04-23 10:06 -1.12091 -158.89379 33939 ft 499 kts 221°
2026-04-23 10:07 -1.17516 -158.93707 33919 ft 499 kts 221°
2026-04-23 10:07 -1.22938 -158.98032 33917 ft 499 kts 221°
2026-04-23 10:08 -1.28355 -159.02355 33919 ft 498 kts 221°
2026-04-23 10:08 -1.33742 -159.06652 33919 ft 497 kts 221°
2026-04-23 10:09 -1.41854 -159.13125 33920 ft 497 kts 221°
2026-04-23 10:09 -1.47259 -159.17439 33922 ft 497 kts 221°
2026-04-23 10:10 -1.52663 -159.21751 33921 ft 496 kts 221°
2026-04-23 10:10 -1.58051 -159.26052 33920 ft 496 kts 221°
2026-04-23 10:11 -1.63445 -159.30357 33929 ft 496 kts 221°
2026-04-23 10:11 -1.68833 -159.34658 33926 ft 496 kts 221°
2026-04-23 10:12 -1.74188 -159.38933 33924 ft 495 kts 221°
2026-04-23 10:12 -1.79577 -159.43235 33923 ft 495 kts 221°
2026-04-23 10:13 -1.84959 -159.47532 33922 ft 495 kts 221°
2026-04-23 10:13 -1.90345 -159.51833 33922 ft 495 kts 221°
2026-04-23 10:14 -1.95728 -159.56130 33933 ft 495 kts 221°
2026-04-23 10:14 -2.01107 -159.60426 33928 ft 495 kts 221°
2026-04-23 10:15 -2.06490 -159.64725 33931 ft 495 kts 221°
2026-04-23 10:15 -2.11866 -159.69019 33926 ft 495 kts 221°
2026-04-23 10:16 -2.17219 -159.73295 33927 ft 495 kts 221°
2026-04-23 10:16 -2.22602 -159.77596 33928 ft 495 kts 221°
2026-04-23 10:17 -2.27983 -159.81895 33925 ft 495 kts 221°
2026-04-23 10:17 -2.33360 -159.86191 33926 ft 495 kts 221°
2026-04-23 10:18 -2.38737 -159.90488 33925 ft 495 kts 221°
2026-04-23 10:18 -2.44121 -159.94790 33924 ft 495 kts 221°
2026-04-23 10:19 -2.49509 -159.99097 33929 ft 495 kts 221°
2026-04-23 10:19 -2.54893 -160.03401 33927 ft 495 kts 221°
2026-04-23 10:20 -2.60244 -160.07678 33931 ft 495 kts 221°
2026-04-23 10:20 -2.65638 -160.11991 33930 ft 495 kts 221°
2026-04-23 10:21 -2.71026 -160.16299 33932 ft 495 kts 221°
2026-04-23 10:21 -2.76410 -160.20605 33932 ft 495 kts 221°
2026-04-23 10:22 -2.81800 -160.24916 33930 ft 496 kts 221°
2026-04-23 10:22 -2.87151 -160.29196 33928 ft 495 kts 221°
2026-04-23 10:23 -2.92531 -160.33501 33930 ft 495 kts 221°
2026-04-23 10:23 -2.97919 -160.37812 33931 ft 495 kts 221°
2026-04-23 10:24 -3.03303 -160.42120 33929 ft 495 kts 221°
2026-04-23 10:24 -3.08685 -160.46428 33930 ft 495 kts 220°
2026-04-23 10:25 -3.14066 -160.50736 33931 ft 495 kts 220°
2026-04-23 10:25 -3.19447 -160.55043 33930 ft 495 kts 220°
2026-04-23 10:26 -3.24833 -160.59356 33928 ft 495 kts 220°
2026-04-23 10:26 -3.30216 -160.63666 33928 ft 496 kts 220°
2026-04-23 10:27 -3.35596 -160.67975 33930 ft 496 kts 220°
2026-04-23 10:27 -3.40945 -160.72260 33928 ft 496 kts 220°
2026-04-23 10:28 -3.46334 -160.76577 33928 ft 496 kts 220°
2026-04-23 10:28 -3.51731 -160.80901 33926 ft 496 kts 220°
2026-04-23 10:29 -3.57119 -160.85219 33929 ft 497 kts 220°
2026-04-23 10:29 -3.62509 -160.89533 33919 ft 496 kts 221°
2026-04-23 10:30 -3.67886 -160.93840 33930 ft 493 kts 221°
2026-04-23 10:30 -3.73240 -160.98137 33930 ft 493 kts 221°
2026-04-23 10:31 -3.78601 -161.02440 33926 ft 493 kts 221°
2026-04-23 10:31 -3.83925 -161.06710 33927 ft 493 kts 221°
2026-04-23 10:32 -3.89288 -161.11012 33932 ft 493 kts 221°
2026-04-23 10:32 -3.94648 -161.15312 33930 ft 494 kts 221°
2026-04-23 10:33 -4.00017 -161.19620 33934 ft 494 kts 221°
2026-04-23 10:33 -4.05380 -161.23924 33930 ft 494 kts 221°
2026-04-23 10:34 -4.10751 -161.28235 33931 ft 494 kts 221°
2026-04-23 10:34 -4.16076 -161.32510 33930 ft 494 kts 221°
2026-04-23 10:35 -4.21450 -161.36826 33927 ft 494 kts 221°
2026-04-23 10:35 -4.26814 -161.41133 33927 ft 494 kts 221°
2026-04-23 10:36 -4.32191 -161.45453 33930 ft 495 kts 221°
2026-04-23 10:36 -4.37556 -161.49763 33929 ft 495 kts 221°
2026-04-23 10:37 -4.42937 -161.54087 33927 ft 495 kts 221°
2026-04-23 10:37 -4.48305 -161.58402 33928 ft 495 kts 221°
2026-04-23 10:38 -4.53656 -161.62703 33929 ft 495 kts 221°
2026-04-23 10:38 -4.59024 -161.67020 33931 ft 495 kts 221°
2026-04-23 10:39 -4.64407 -161.71348 33931 ft 495 kts 221°
2026-04-23 10:39 -4.69776 -161.75667 33928 ft 495 kts 221°
2026-04-23 10:40 -4.75149 -161.79990 33927 ft 495 kts 221°
2026-04-23 10:40 -4.80523 -161.84315 33927 ft 495 kts 221°
2026-04-23 10:41 -4.85870 -161.88619 33928 ft 495 kts 221°
2026-04-23 10:41 -4.91244 -161.92945 33929 ft 496 kts 220°
2026-04-23 10:42 -4.96637 -161.97288 33929 ft 497 kts 220°
2026-04-23 10:42 -5.01839 -162.01830 33930 ft 496 kts 225°
2026-04-23 10:43 -5.06798 -162.06648 33926 ft 496 kts 226°
2026-04-23 10:43 -5.10896 -162.10699 33929 ft 497 kts 226°
2026-04-23 10:44 -5.15819 -162.15572 33929 ft 497 kts 225°
2026-04-23 10:44 -5.20752 -162.20442 33928 ft 498 kts 225°
2026-04-23 10:45 -5.25693 -162.25314 33926 ft 498 kts 225°
2026-04-23 10:45 -5.30636 -162.30189 33928 ft 498 kts 225°
2026-04-23 10:46 -5.35579 -162.35066 33927 ft 498 kts 225°
2026-04-23 10:46 -5.40517 -162.39942 33929 ft 498 kts 225°
2026-04-23 10:47 -5.45461 -162.44828 33929 ft 499 kts 225°
2026-04-23 10:47 -5.50410 -162.49712 33931 ft 499 kts 225°
2026-04-23 10:48 -5.55366 -162.54606 33928 ft 500 kts 224°
2026-04-23 10:48 -5.60321 -162.59499 33928 ft 500 kts 224°
2026-04-23 10:49 -5.65282 -162.64400 33928 ft 500 kts 224°
2026-04-23 10:49 -5.70213 -162.69267 33924 ft 500 kts 224°
2026-04-23 10:50 -5.75174 -162.74173 33927 ft 500 kts 224°
2026-04-23 10:50 -5.80132 -162.79076 33928 ft 501 kts 224°
2026-04-23 10:51 -5.85100 -162.83986 33927 ft 501 kts 224°
2026-04-23 10:51 -5.90065 -162.88897 33929 ft 501 kts 224°
2026-04-23 10:52 -5.95038 -162.93814 33927 ft 502 kts 223°
2026-04-23 10:52 -6.00021 -162.98744 33929 ft 502 kts 223°
2026-04-23 10:53 -6.05009 -163.03680 33927 ft 503 kts 223°
2026-04-23 10:53 -6.09966 -163.08588 33928 ft 503 kts 223°
2026-04-23 10:54 -6.14955 -163.13529 33925 ft 504 kts 223°
2026-04-23 10:54 -6.19951 -163.18478 33926 ft 504 kts 223°
2026-04-23 10:55 -6.24950 -163.23432 33930 ft 505 kts 223°
2026-04-23 10:55 -6.29953 -163.28392 33927 ft 505 kts 223°
2026-04-23 10:56 -6.34959 -163.33354 33926 ft 506 kts 223°
2026-04-23 10:56 -6.39972 -163.38326 33927 ft 506 kts 223°
2026-04-23 10:57 -6.44985 -163.43301 33928 ft 507 kts 223°
2026-04-23 10:57 -6.49977 -163.48256 33927 ft 507 kts 223°
2026-04-23 10:58 -6.55002 -163.53245 33925 ft 508 kts 223°
2026-04-23 10:58 -6.60034 -163.58242 33925 ft 508 kts 223°
2026-04-23 10:59 -6.65065 -163.63240 33928 ft 509 kts 223°
2026-04-23 10:59 -6.70110 -163.68252 33926 ft 509 kts 223°
2026-04-23 11:00 -6.75151 -163.73263 33926 ft 510 kts 223°
2026-04-23 11:00 -6.80201 -163.78284 33924 ft 510 kts 223°
2026-04-23 11:01 -6.85253 -163.83309 33932 ft 511 kts 223°
2026-04-23 11:01 -6.90303 -163.88333 33925 ft 511 kts 223°
2026-04-23 11:02 -6.95368 -163.93373 33929 ft 512 kts 223°
2026-04-23 11:02 -7.00399 -163.98381 33930 ft 512 kts 223°
2026-04-23 11:03 -7.05461 -164.03423 33927 ft 512 kts 223°
2026-04-23 11:03 -7.10531 -164.08473 33936 ft 512 kts 223°
2026-04-23 11:04 -7.15609 -164.13534 33939 ft 513 kts 223°
2026-04-23 11:04 -7.20680 -164.18588 33931 ft 513 kts 223°
2026-04-23 11:05 -7.25750 -164.23643 33930 ft 513 kts 223°
2026-04-23 11:05 -7.30826 -164.28707 33928 ft 513 kts 223°
2026-04-23 11:06 -7.38405 -164.36270 33931 ft 514 kts 223°
2026-04-23 11:07 -7.43480 -164.41337 33933 ft 514 kts 223°
2026-04-23 11:07 -7.48566 -164.46416 33935 ft 514 kts 223°
2026-04-23 11:08 -7.53645 -164.51489 33930 ft 514 kts 223°
2026-04-23 11:08 -7.58729 -164.56571 33929 ft 514 kts 223°
2026-04-23 11:09 -7.63808 -164.61649 33932 ft 514 kts 223°
2026-04-23 11:09 -7.68886 -164.66727 33931 ft 514 kts 223°
2026-04-23 11:10 -7.73969 -164.71812 33934 ft 514 kts 223°
2026-04-23 11:10 -7.79050 -164.76897 33930 ft 515 kts 223°
2026-04-23 11:11 -7.84135 -164.81988 33946 ft 515 kts 223°
2026-04-23 11:11 -7.89198 -164.87059 33928 ft 516 kts 223°
2026-04-23 11:12 -7.94294 -164.92164 33926 ft 516 kts 223°
2026-04-23 11:12 -7.99394 -164.97275 33928 ft 517 kts 223°
2026-04-23 11:13 -8.04499 -165.02394 33926 ft 517 kts 223°
2026-04-23 11:13 -8.09605 -165.07516 33917 ft 517 kts 223°
2026-04-23 11:14 -8.14711 -165.12639 33935 ft 518 kts 223°
2026-04-23 11:14 -8.19798 -165.17746 33932 ft 518 kts 223°
2026-04-23 11:15 -8.24904 -165.22872 33932 ft 518 kts 222°
2026-04-23 11:15 -8.30030 -165.28022 33933 ft 519 kts 222°
2026-04-23 11:16 -8.35143 -165.33161 33914 ft 519 kts 222°
2026-04-23 11:16 -8.40269 -165.38314 33919 ft 519 kts 222°
2026-04-23 11:17 -8.45366 -165.43440 33913 ft 520 kts 222°
2026-04-23 11:17 -8.50501 -165.48607 33911 ft 520 kts 222°
2026-04-23 11:18 -8.55629 -165.53768 33908 ft 521 kts 222°
2026-04-23 11:18 -8.60759 -165.58934 33909 ft 521 kts 222°
2026-04-23 11:19 -8.65890 -165.64104 33911 ft 521 kts 222°
2026-04-23 11:19 -8.71028 -165.69281 33924 ft 521 kts 222°
2026-04-23 11:20 -8.76135 -165.74429 33928 ft 521 kts 222°
2026-04-23 11:20 -8.81272 -165.79611 33910 ft 521 kts 222°
2026-04-23 11:21 -8.86409 -165.84794 33923 ft 521 kts 222°
2026-04-23 11:21 -8.91543 -165.89977 33920 ft 521 kts 222°
2026-04-23 11:22 -8.96666 -165.95150 33921 ft 521 kts 222°
2026-04-23 11:22 -9.01812 -166.00349 33922 ft 522 kts 222°
2026-04-23 11:23 -9.06942 -166.05534 33923 ft 522 kts 222°
2026-04-23 11:23 -9.12085 -166.10734 33923 ft 522 kts 222°
2026-04-23 11:24 -9.17214 -166.15923 33923 ft 522 kts 222°
2026-04-23 11:24 -9.22352 -166.21123 33924 ft 522 kts 222°
2026-04-23 11:25 -9.27444 -166.26278 33925 ft 522 kts 222°
2026-04-23 11:25 -9.32579 -166.31479 33924 ft 522 kts 222°
2026-04-23 11:26 -9.37712 -166.36682 33926 ft 522 kts 222°
2026-04-23 11:26 -9.42844 -166.41885 33922 ft 522 kts 222°
2026-04-23 11:27 -9.47970 -166.47083 33929 ft 521 kts 222°
2026-04-23 11:27 -9.53098 -166.52287 33926 ft 521 kts 222°
2026-04-23 11:28 -9.58191 -166.57457 33928 ft 521 kts 222°
2026-04-23 11:28 -9.63310 -166.62656 33929 ft 521 kts 222°
2026-04-23 11:29 -9.68421 -166.67850 33930 ft 521 kts 222°
2026-04-23 11:29 -9.73544 -166.73057 33923 ft 520 kts 222°
2026-04-23 11:30 -9.78645 -166.78246 33924 ft 520 kts 222°
2026-04-23 11:30 -9.82897 -166.82572 33926 ft 520 kts 222°
2026-04-23 11:31 -9.87996 -166.87762 33927 ft 519 kts 222°
2026-04-23 11:31 -9.93100 -166.92960 33925 ft 519 kts 223°
2026-04-23 11:32 -9.98199 -166.98155 33923 ft 519 kts 222°
2026-04-23 11:32 -10.03674 -167.02879 33924 ft 516 kts 216°
2026-04-23 11:33 -10.09337 -167.07337 33923 ft 515 kts 214°
2026-04-23 11:33 -10.15036 -167.11756 33927 ft 515 kts 214°
2026-04-23 11:34 -10.20724 -167.16181 33928 ft 515 kts 214°
2026-04-23 11:34 -10.26409 -167.20621 33929 ft 515 kts 214°
2026-04-23 11:35 -10.32047 -167.25032 33928 ft 514 kts 214°
2026-04-23 11:35 -10.37714 -167.29468 33926 ft 514 kts 214°
2026-04-23 11:36 -10.43380 -167.33904 33926 ft 514 kts 214°
2026-04-23 11:36 -10.49048 -167.38343 33929 ft 513 kts 215°
2026-04-23 11:37 -10.54701 -167.42774 33930 ft 513 kts 215°
2026-04-23 11:37 -10.60351 -167.47204 33925 ft 513 kts 214°
2026-04-23 11:38 -10.65999 -167.51635 33931 ft 512 kts 215°
2026-04-23 11:38 -10.71608 -167.56037 33931 ft 512 kts 215°
2026-04-23 11:39 -10.77259 -167.60474 33930 ft 512 kts 215°
2026-04-23 11:39 -10.82902 -167.64907 33932 ft 512 kts 215°
2026-04-23 11:40 -10.88537 -167.69336 33932 ft 512 kts 215°
2026-04-23 11:40 -10.94149 -167.73749 33930 ft 511 kts 215°
2026-04-23 11:41 -10.99776 -167.78176 33931 ft 511 kts 215°
2026-04-23 11:41 -11.05407 -167.82608 33934 ft 511 kts 215°
2026-04-23 11:42 -11.11028 -167.87035 33934 ft 511 kts 215°
2026-04-23 11:42 -11.16655 -167.91469 33935 ft 510 kts 215°
2026-04-23 11:43 -11.22234 -167.95866 33936 ft 510 kts 215°
2026-04-23 11:43 -11.27855 -168.00299 33933 ft 510 kts 215°
2026-04-23 11:44 -11.33466 -168.04728 33937 ft 510 kts 215°
2026-04-23 11:44 -11.39093 -168.09171 33935 ft 510 kts 216°
2026-04-23 11:45 -11.44700 -168.13600 33937 ft 510 kts 216°
2026-04-23 11:45 -11.50271 -168.18002 33937 ft 510 kts 216°
2026-04-23 11:46 -11.55876 -168.22434 33942 ft 510 kts 216°
2026-04-23 11:46 -11.61483 -168.26870 33941 ft 510 kts 216°
2026-04-23 11:47 -11.67094 -168.31312 33944 ft 510 kts 216°
2026-04-23 11:47 -11.72702 -168.35753 33941 ft 510 kts 216°
2026-04-23 11:48 -11.78274 -168.40169 33942 ft 510 kts 216°
2026-04-23 11:48 -11.83878 -168.44612 33945 ft 510 kts 216°
2026-04-23 11:49 -11.89474 -168.49051 33944 ft 510 kts 216°
2026-04-23 11:49 -11.95084 -168.53503 33942 ft 510 kts 216°
2026-04-23 11:50 -12.00677 -168.57944 33939 ft 510 kts 216°
2026-04-23 11:50 -12.06242 -168.62366 33944 ft 510 kts 216°
2026-04-23 11:51 -12.11833 -168.66810 33948 ft 510 kts 216°
2026-04-23 11:51 -12.17431 -168.71263 33949 ft 510 kts 216°
2026-04-23 11:52 -12.23027 -168.75716 33947 ft 510 kts 216°
2026-04-23 11:52 -12.28627 -168.80176 33949 ft 510 kts 216°
2026-04-23 11:53 -12.34217 -168.84630 33950 ft 510 kts 216°
2026-04-23 11:53 -12.39825 -168.89099 33948 ft 510 kts 216°
2026-04-23 11:54 -12.45428 -168.93568 33950 ft 510 kts 216°
2026-04-23 11:54 -12.51000 -168.98015 33949 ft 510 kts 216°
2026-04-23 11:55 -12.56595 -169.02483 33951 ft 510 kts 216°
2026-04-23 11:55 -12.62202 -169.06961 33951 ft 511 kts 216°
2026-04-23 11:56 -12.67804 -169.11440 33953 ft 510 kts 216°
2026-04-23 11:56 -12.73397 -169.15913 33950 ft 510 kts 216°
2026-04-23 11:57 -12.78996 -169.20392 33951 ft 511 kts 216°
2026-04-23 11:57 -12.84594 -169.24879 33956 ft 511 kts 217°
2026-04-23 11:58 -12.90194 -169.29367 33957 ft 511 kts 217°
2026-04-23 11:58 -12.95794 -169.33855 33954 ft 511 kts 217°
2026-04-23 11:59 -13.01387 -169.38342 33953 ft 511 kts 217°
2026-04-23 11:59 -13.06992 -169.42842 33951 ft 511 kts 217°
2026-04-23 12:00 -13.12546 -169.47307 33950 ft 511 kts 217°
2026-04-23 12:00 -13.18139 -169.51802 33959 ft 510 kts 217°
2026-04-23 12:01 -13.23720 -169.56297 33957 ft 510 kts 217°
2026-04-23 12:01 -13.29307 -169.60812 33954 ft 510 kts 217°
2026-04-23 12:02 -13.34888 -169.65327 33959 ft 510 kts 217°
2026-04-23 12:02 -13.40472 -169.69839 33962 ft 510 kts 217°
2026-04-23 12:03 -13.46005 -169.74317 33958 ft 510 kts 217°
2026-04-23 12:03 -13.51591 -169.78841 33961 ft 510 kts 217°
2026-04-23 12:04 -13.57162 -169.83349 33964 ft 510 kts 217°
2026-04-23 12:04 -13.62743 -169.87867 33961 ft 510 kts 217°
2026-04-23 12:05 -13.68308 -169.92375 33964 ft 509 kts 217°
2026-04-23 12:05 -13.73880 -169.96893 33963 ft 509 kts 217°
2026-04-23 12:06 -13.79385 -170.01367 33963 ft 508 kts 217°
2026-04-23 12:06 -13.87710 -170.08138 33964 ft 508 kts 217°
2026-04-23 12:07 -13.93247 -170.12643 33963 ft 507 kts 217°
2026-04-23 12:07 -13.98778 -170.17135 33963 ft 506 kts 217°
2026-04-23 12:08 -14.04316 -170.21621 33964 ft 506 kts 217°
2026-04-23 12:08 -14.09796 -170.26089 33965 ft 505 kts 217°
2026-04-23 12:09 -14.15312 -170.30599 33962 ft 505 kts 217°
2026-04-23 12:09 -14.20817 -170.35089 33965 ft 504 kts 217°
2026-04-23 12:10 -14.26322 -170.39584 33966 ft 504 kts 217°
2026-04-23 12:10 -14.31817 -170.44063 33964 ft 504 kts 217°
2026-04-23 12:11 -14.37311 -170.48548 33970 ft 503 kts 217°
2026-04-23 12:11 -14.42798 -170.53039 33972 ft 503 kts 217°
2026-04-23 12:12 -14.48286 -170.57528 33972 ft 503 kts 217°
2026-04-23 12:12 -14.53735 -170.61993 33972 ft 503 kts 217°
2026-04-23 12:13 -14.59216 -170.66486 33973 ft 503 kts 217°
2026-04-23 12:13 -14.64698 -170.70981 33971 ft 503 kts 217°
2026-04-23 12:14 -14.70182 -170.75482 33973 ft 503 kts 217°
2026-04-23 12:14 -14.75657 -170.79977 33971 ft 503 kts 217°
2026-04-23 12:15 -14.81142 -170.84483 33971 ft 503 kts 217°
2026-04-23 12:15 -14.86610 -170.88975 33974 ft 502 kts 217°
2026-04-23 12:16 -14.92080 -170.93472 33972 ft 502 kts 217°
2026-04-23 12:16 -14.97537 -170.97965 33974 ft 501 kts 217°
2026-04-23 12:17 -15.03011 -171.02433 33977 ft 500 kts 216°
2026-04-23 12:17 -15.08545 -171.06711 33977 ft 499 kts 215°
2026-04-23 12:18 -15.14144 -171.10977 33976 ft 499 kts 215°
2026-04-23 12:18 -15.19727 -171.15267 33975 ft 499 kts 215°
2026-04-23 12:19 -15.24340 -171.18840 33975 ft 498 kts 216°
2026-04-23 12:19 -15.29890 -171.23149 33976 ft 498 kts 216°
2026-04-23 12:20 -15.35425 -171.27451 33977 ft 497 kts 216°
2026-04-23 12:20 -15.40961 -171.31757 33977 ft 497 kts 216°
2026-04-23 12:21 -15.46495 -171.36055 33979 ft 497 kts 216°
2026-04-23 12:21 -15.52024 -171.40352 33980 ft 497 kts 216°
2026-04-23 12:22 -15.57552 -171.44651 33979 ft 497 kts 216°
2026-04-23 12:22 -15.63083 -171.48957 33981 ft 497 kts 216°
2026-04-23 12:23 -15.68608 -171.53265 33983 ft 497 kts 216°
2026-04-23 12:23 -15.74104 -171.57556 33983 ft 497 kts 216°
2026-04-23 12:24 -15.79631 -171.61871 33981 ft 497 kts 216°
2026-04-23 12:24 -15.85164 -171.66195 33985 ft 498 kts 216°
2026-04-23 12:25 -15.90695 -171.70521 33986 ft 498 kts 216°
2026-04-23 12:25 -15.96234 -171.74855 33987 ft 498 kts 216°
2026-04-23 12:26 -16.01777 -171.79195 33984 ft 499 kts 216°
2026-04-23 12:26 -16.07325 -171.83541 33986 ft 500 kts 217°
2026-04-23 12:27 -16.12878 -171.87895 33988 ft 500 kts 217°
2026-04-23 12:27 -16.18433 -171.92254 33988 ft 500 kts 217°
2026-04-23 12:28 -16.23956 -171.96590 33989 ft 500 kts 217°
2026-04-23 12:28 -16.29512 -172.00955 33987 ft 500 kts 217°
2026-04-23 12:29 -16.35071 -172.05326 33988 ft 500 kts 217°
2026-04-23 12:29 -16.40634 -172.09703 33985 ft 501 kts 217°
2026-04-23 12:30 -16.46190 -172.14079 33984 ft 501 kts 217°
2026-04-23 12:30 -16.51760 -172.18468 33985 ft 502 kts 217°
2026-04-23 12:31 -16.57296 -172.22834 33988 ft 502 kts 217°
2026-04-23 12:31 -16.62865 -172.27228 33988 ft 502 kts 218°
2026-04-23 12:32 -16.68430 -172.31623 33988 ft 502 kts 218°
2026-04-23 12:32 -16.73998 -172.36025 33989 ft 501 kts 218°
2026-04-23 12:33 -16.79563 -172.40427 33987 ft 501 kts 218°
2026-04-23 12:33 -16.85115 -172.44821 33990 ft 501 kts 218°
2026-04-23 12:34 -16.90666 -172.49220 33990 ft 501 kts 218°
2026-04-23 12:34 -16.96226 -172.53625 33990 ft 501 kts 218°
2026-04-23 12:35 -17.01783 -172.58035 33992 ft 501 kts 218°
2026-04-23 12:35 -17.07336 -172.62443 33989 ft 501 kts 218°
2026-04-23 12:36 -17.12857 -172.66830 33995 ft 502 kts 218°
2026-04-23 12:36 -17.18415 -172.71250 33994 ft 502 kts 218°
2026-04-23 12:37 -17.23975 -172.75673 33994 ft 502 kts 218°
2026-04-23 12:37 -17.29534 -172.80105 33993 ft 502 kts 218°
2026-04-23 12:38 -17.35093 -172.84540 33991 ft 502 kts 218°
2026-04-23 12:38 -17.40650 -172.88971 33997 ft 502 kts 218°
2026-04-23 12:39 -17.46207 -172.93403 33997 ft 502 kts 219°
2026-04-23 12:39 -17.51774 -172.97846 33997 ft 502 kts 219°
2026-04-23 12:40 -17.57330 -173.02289 33997 ft 503 kts 219°
2026-04-23 12:40 -17.62886 -173.06740 33996 ft 503 kts 218°
2026-04-23 12:41 -17.68403 -173.11155 33999 ft 502 kts 219°
2026-04-23 12:41 -17.73962 -173.15607 33998 ft 502 kts 218°
2026-04-23 12:42 -17.79523 -173.20071 33999 ft 502 kts 219°
2026-04-23 12:42 -17.85081 -173.24528 33999 ft 503 kts 219°
2026-04-23 12:43 -17.90633 -173.29002 33999 ft 503 kts 219°
2026-04-23 12:43 -17.96190 -173.33475 34002 ft 503 kts 219°
2026-04-23 12:44 -18.01718 -173.37932 34001 ft 503 kts 219°
2026-04-23 12:44 -18.07275 -173.42399 34003 ft 503 kts 219°
2026-04-23 12:45 -18.12841 -173.46870 34004 ft 503 kts 219°
2026-04-23 12:45 -18.18405 -173.51364 34004 ft 504 kts 219°
2026-04-23 12:46 -18.23965 -173.55857 34002 ft 504 kts 219°
2026-04-23 12:46 -18.29526 -173.60352 34007 ft 504 kts 219°
2026-04-23 12:47 -18.35061 -173.64820 34007 ft 505 kts 219°
2026-04-23 12:47 -18.40631 -173.69329 34009 ft 505 kts 219°
2026-04-23 12:48 -18.46199 -173.73843 34014 ft 505 kts 219°
2026-04-23 12:48 -18.51759 -173.78352 34015 ft 505 kts 219°
2026-04-23 12:49 -18.57340 -173.82880 34018 ft 505 kts 219°
2026-04-23 12:49 -18.62874 -173.87374 34021 ft 505 kts 219°
2026-04-23 12:50 -18.68445 -173.91901 34021 ft 505 kts 219°
2026-04-23 12:50 -18.74008 -173.96426 34019 ft 505 kts 219°
2026-04-23 12:51 -18.79581 -174.00963 34018 ft 505 kts 219°
2026-04-23 12:51 -18.85141 -174.05494 34016 ft 505 kts 219°
2026-04-23 12:52 -18.90706 -174.10033 34016 ft 505 kts 219°
2026-04-23 12:52 -18.96273 -174.14577 34016 ft 505 kts 219°
2026-04-23 12:53 -19.01825 -174.19114 34012 ft 505 kts 219°
2026-04-23 12:53 -19.07380 -174.23656 34017 ft 505 kts 219°
2026-04-23 12:54 -19.12939 -174.28205 34018 ft 504 kts 219°
2026-04-23 12:54 -19.18448 -174.32718 34018 ft 504 kts 219°
2026-04-23 12:55 -19.23989 -174.37260 34018 ft 504 kts 219°
2026-04-23 12:55 -19.29527 -174.41805 34018 ft 503 kts 220°
2026-04-23 12:56 -19.35066 -174.46355 34021 ft 503 kts 220°
2026-04-23 12:56 -19.40592 -174.50897 34019 ft 503 kts 220°
2026-04-23 12:57 -19.46130 -174.55453 34023 ft 503 kts 220°
2026-04-23 12:57 -19.51650 -174.59999 34021 ft 503 kts 220°
2026-04-23 12:58 -19.57141 -174.64525 34024 ft 502 kts 220°
2026-04-23 12:58 -19.62655 -174.69073 34023 ft 501 kts 220°
2026-04-23 12:59 -19.68160 -174.73618 34025 ft 501 kts 220°
2026-04-23 12:59 -19.73659 -174.78163 34026 ft 500 kts 220°
2026-04-23 13:00 -19.79143 -174.82700 34027 ft 500 kts 220°
2026-04-23 13:00 -19.84623 -174.87237 34026 ft 499 kts 220°
2026-04-23 13:01 -19.90064 -174.91744 34027 ft 498 kts 220°
2026-04-23 13:01 -19.95529 -174.96277 34034 ft 497 kts 220°
2026-04-23 13:02 -20.00978 -175.00800 34033 ft 496 kts 220°
2026-04-23 13:02 -20.06546 -175.05154 34021 ft 496 kts 218°
2026-04-23 13:03 -20.12185 -175.09387 34041 ft 496 kts 218°
2026-04-23 13:03 -20.17808 -175.13642 34034 ft 495 kts 219°
2026-04-23 13:04 -20.23395 -175.17918 34030 ft 495 kts 219°
2026-04-23 13:04 -20.28972 -175.22208 34035 ft 494 kts 219°
2026-04-23 13:05 -20.34552 -175.26504 34034 ft 495 kts 219°
2026-04-23 13:05 -20.40135 -175.30804 34031 ft 495 kts 219°
2026-04-23 13:06 -20.48484 -175.37239 34030 ft 496 kts 219°
2026-04-23 13:07 -20.54063 -175.41544 34034 ft 496 kts 219°
2026-04-23 13:07 -20.59664 -175.45870 34033 ft 496 kts 219°
2026-04-23 13:08 -20.65254 -175.50192 34036 ft 497 kts 219°
2026-04-23 13:08 -20.69921 -175.53803 34035 ft 497 kts 219°
2026-04-23 13:09 -20.75524 -175.58142 34034 ft 498 kts 219°
2026-04-23 13:09 -20.81135 -175.62492 34039 ft 498 kts 219°
2026-04-23 13:10 -20.86744 -175.66844 34035 ft 499 kts 220°
2026-04-23 13:10 -20.92368 -175.71212 34036 ft 500 kts 220°
2026-04-23 13:11 -20.98001 -175.75591 34036 ft 501 kts 220°
2026-04-23 13:11 -21.03651 -175.79988 34039 ft 502 kts 220°
2026-04-23 13:12 -21.09309 -175.84395 34042 ft 503 kts 220°
2026-04-23 13:12 -21.14942 -175.88786 34045 ft 503 kts 220°
2026-04-23 13:13 -21.20599 -175.93200 34046 ft 504 kts 220°
2026-04-23 13:13 -21.26271 -175.97631 34045 ft 504 kts 220°
2026-04-23 13:14 -21.31928 -176.02054 34041 ft 504 kts 220°
2026-04-23 13:14 -21.37597 -176.06490 34042 ft 503 kts 220°
2026-04-23 13:15 -21.43250 -176.10918 34047 ft 503 kts 220°
2026-04-23 13:15 -21.48913 -176.15360 34047 ft 503 kts 220°
2026-04-23 13:16 -21.54526 -176.19765 34044 ft 503 kts 220°
2026-04-23 13:16 -21.60166 -176.24197 34048 ft 502 kts 220°
2026-04-23 13:17 -21.65814 -176.28639 34053 ft 502 kts 220°
2026-04-23 13:17 -21.71446 -176.33073 34048 ft 502 kts 220°
2026-04-23 13:18 -21.77074 -176.37507 34048 ft 502 kts 220°
2026-04-23 13:18 -21.82707 -176.41952 34048 ft 502 kts 220°
2026-04-23 13:19 -21.88335 -176.46395 34054 ft 501 kts 221°
2026-04-23 13:19 -21.93920 -176.50810 34054 ft 501 kts 221°
2026-04-23 13:20 -21.99533 -176.55252 34055 ft 500 kts 221°
2026-04-23 13:20 -22.05143 -176.59695 34046 ft 500 kts 221°
2026-04-23 13:21 -22.10744 -176.64136 34060 ft 499 kts 221°
2026-04-23 13:21 -22.16345 -176.68581 34064 ft 499 kts 221°
2026-04-23 13:22 -22.21930 -176.73018 34057 ft 498 kts 221°
2026-04-23 13:22 -22.27481 -176.77432 34065 ft 497 kts 221°
2026-04-23 13:23 -22.33056 -176.81870 34063 ft 497 kts 221°
2026-04-23 13:23 -22.38622 -176.86305 34061 ft 496 kts 221°
2026-04-23 13:24 -22.44178 -176.90736 34056 ft 496 kts 221°
2026-04-23 13:24 -22.49724 -176.95165 34070 ft 496 kts 221°
2026-04-23 13:25 -22.55225 -176.99562 34067 ft 495 kts 221°
2026-04-23 13:25 -22.60763 -177.03994 34069 ft 495 kts 221°
2026-04-23 13:26 -22.66291 -177.08421 34073 ft 494 kts 221°
2026-04-23 13:26 -22.71813 -177.12847 34073 ft 493 kts 222°
2026-04-23 13:27 -22.77327 -177.17273 34073 ft 493 kts 222°
2026-04-23 13:27 -22.82834 -177.21697 34075 ft 492 kts 222°
2026-04-23 13:28 -22.88320 -177.26109 34077 ft 491 kts 222°
2026-04-23 13:28 -22.93824 -177.30541 34079 ft 491 kts 222°
2026-04-23 13:29 -22.99295 -177.34949 34082 ft 490 kts 222°
2026-04-23 13:29 -23.04739 -177.39340 34082 ft 490 kts 222°
2026-04-23 13:30 -23.10213 -177.43760 34083 ft 490 kts 222°
2026-04-23 13:30 -23.15685 -177.48183 34085 ft 489 kts 222°
2026-04-23 13:31 -23.21146 -177.52602 34085 ft 489 kts 222°
2026-04-23 13:31 -23.26608 -177.57026 34086 ft 489 kts 222°
2026-04-23 13:32 -23.32029 -177.61422 34087 ft 489 kts 222°
2026-04-23 13:32 -23.37497 -177.65861 34089 ft 490 kts 222°
2026-04-23 13:33 -23.42961 -177.70301 34088 ft 490 kts 222°
2026-04-23 13:33 -23.48434 -177.74753 34091 ft 491 kts 222°
2026-04-23 13:34 -23.53913 -177.79214 34093 ft 491 kts 222°
2026-04-23 13:34 -23.59394 -177.83683 34094 ft 492 kts 223°
2026-04-23 13:35 -23.64885 -177.88164 34097 ft 492 kts 223°
2026-04-23 13:35 -23.70337 -177.92617 34094 ft 492 kts 223°
2026-04-23 13:36 -23.75812 -177.97095 34098 ft 493 kts 223°
2026-04-23 13:36 -23.81312 -178.01598 34096 ft 493 kts 223°
2026-04-23 13:37 -23.86793 -178.06090 34101 ft 493 kts 223°
2026-04-23 13:37 -23.92282 -178.10594 34097 ft 493 kts 223°
2026-04-23 13:38 -23.97762 -178.15095 34104 ft 493 kts 223°
2026-04-23 13:38 -24.03213 -178.19578 34098 ft 493 kts 223°
2026-04-23 13:39 -24.08691 -178.24087 34106 ft 492 kts 223°
2026-04-23 13:39 -24.14167 -178.28599 34104 ft 492 kts 223°
2026-04-23 13:40 -24.19643 -178.33116 34107 ft 492 kts 223°
2026-04-23 13:40 -24.25115 -178.37635 34105 ft 492 kts 223°
2026-04-23 13:41 -24.30582 -178.42155 34108 ft 492 kts 224°
2026-04-23 13:41 -24.36047 -178.46678 34113 ft 492 kts 224°
2026-04-23 13:42 -24.41504 -178.51199 34111 ft 491 kts 224°
2026-04-23 13:42 -24.46957 -178.55723 34115 ft 491 kts 224°
2026-04-23 13:43 -24.52395 -178.60238 34109 ft 490 kts 224°
2026-04-23 13:43 -24.57827 -178.64754 34122 ft 490 kts 224°
2026-04-23 13:44 -24.63264 -178.69280 34118 ft 489 kts 224°
2026-04-23 13:44 -24.68689 -178.73801 34125 ft 489 kts 224°
2026-04-23 13:45 -24.73194 -178.77558 34127 ft 489 kts 224°
2026-04-23 13:45 -24.79494 -178.82819 34124 ft 488 kts 224°
2026-04-23 13:46 -24.84899 -178.87338 34122 ft 487 kts 225°
2026-04-23 13:46 -24.90299 -178.91858 34127 ft 487 kts 225°
2026-04-23 13:47 -24.95688 -178.96373 34131 ft 486 kts 225°
2026-04-23 13:47 -25.01475 -179.00387 34132 ft 501 kts 212°
2026-04-23 13:48 -25.08028 -179.03179 34130 ft 507 kts 207°
2026-04-23 13:48 -25.14670 -179.05684 34130 ft 507 kts 207°
2026-04-23 13:49 -25.21343 -179.08174 34131 ft 506 kts 207°
2026-04-23 13:49 -25.28011 -179.10701 34128 ft 506 kts 208°
2026-04-23 13:50 -25.34661 -179.13252 34135 ft 505 kts 208°
2026-04-23 13:50 -25.41306 -179.15809 34140 ft 505 kts 208°
2026-04-23 13:51 -25.47931 -179.18359 34140 ft 504 kts 208°
2026-04-23 13:51 -25.54505 -179.20889 34141 ft 502 kts 209°
2026-04-23 13:52 -25.61096 -179.23431 34140 ft 501 kts 209°
2026-04-23 13:52 -25.67685 -179.25975 34143 ft 500 kts 209°
2026-04-23 13:53 -25.74256 -179.28514 34145 ft 499 kts 209°
2026-04-23 13:53 -25.80810 -179.31051 34146 ft 498 kts 209°
2026-04-23 13:54 -25.87356 -179.33587 34145 ft 498 kts 209°
2026-04-23 13:54 -25.93900 -179.36126 34145 ft 497 kts 210°
2026-04-23 13:55 -26.00377 -179.38641 34147 ft 497 kts 210°
2026-04-23 13:55 -26.06910 -179.41181 34152 ft 497 kts 210°
2026-04-23 13:56 -26.12374 -179.43307 34149 ft 497 kts 210°
2026-04-23 13:56 -26.18904 -179.45851 34148 ft 496 kts 210°
2026-04-23 13:57 -26.25383 -179.48378 34156 ft 496 kts 210°
2026-04-23 13:57 -26.31900 -179.50924 34158 ft 496 kts 210°
2026-04-23 13:58 -26.38417 -179.53472 34152 ft 496 kts 210°
2026-04-23 13:58 -26.44945 -179.56026 34157 ft 496 kts 210°
2026-04-23 13:59 -26.51441 -179.58571 34159 ft 496 kts 210°
2026-04-23 13:59 -26.57956 -179.61127 34158 ft 495 kts 210°
2026-04-23 14:00 -26.64405 -179.63660 34157 ft 494 kts 210°
2026-04-23 14:00 -26.70945 -179.66232 34165 ft 494 kts 210°
2026-04-23 14:01 -26.77373 -179.68763 34161 ft 493 kts 211°
2026-04-23 14:01 -26.83862 -179.71322 34160 ft 492 kts 211°
2026-04-23 14:02 -26.90321 -179.73872 34159 ft 492 kts 211°
2026-04-23 14:02 -26.96744 -179.76410 34161 ft 491 kts 211°
2026-04-23 14:03 -27.03191 -179.78961 34168 ft 491 kts 211°
2026-04-23 14:03 -27.09628 -179.81511 34166 ft 490 kts 211°
2026-04-23 14:04 -27.16051 -179.84059 34165 ft 490 kts 211°
2026-04-23 14:04 -27.22479 -179.86612 34165 ft 489 kts 211°
2026-04-23 14:05 -27.28895 -179.89164 34167 ft 489 kts 211°
2026-04-23 14:05 -27.35307 -179.91716 34167 ft 488 kts 211°
2026-04-23 14:06 -27.41670 -179.94251 34169 ft 488 kts 211°
2026-04-23 14:06 -27.48077 -179.96808 34175 ft 488 kts 212°
2026-04-23 14:07 -27.54466 -179.99362 34174 ft 488 kts 212°
2026-04-23 14:07 -27.64074 179.96793 34171 ft 487 kts 212°
2026-04-23 14:08 -27.70456 179.94235 34172 ft 487 kts 212°
2026-04-23 14:08 -27.76845 179.91671 34170 ft 487 kts 212°
2026-04-23 14:09 -27.83220 179.89109 34170 ft 487 kts 212°
2026-04-23 14:09 -27.89569 179.86554 34175 ft 486 kts 212°
2026-04-23 14:10 -27.95945 179.83985 34179 ft 486 kts 212°
2026-04-23 14:10 -28.02336 179.81408 34177 ft 486 kts 212°
2026-04-23 14:11 -28.08717 179.78831 34178 ft 486 kts 212°
2026-04-23 14:11 -28.15090 179.76254 34179 ft 486 kts 213°
2026-04-23 14:12 -28.21460 179.73675 34179 ft 486 kts 213°
2026-04-23 14:12 -28.27839 179.71089 34179 ft 486 kts 213°
2026-04-23 14:13 -28.34164 179.68521 34177 ft 486 kts 213°
2026-04-23 14:13 -28.40586 179.65911 34177 ft 486 kts 213°
2026-04-23 14:14 -28.46915 179.63335 34175 ft 486 kts 213°
2026-04-23 14:14 -28.53335 179.60720 34177 ft 486 kts 213°
2026-04-23 14:15 -28.59662 179.58138 34178 ft 486 kts 213°
2026-04-23 14:15 -28.66042 179.55532 34179 ft 486 kts 213°
2026-04-23 14:16 -28.72410 179.52928 34177 ft 486 kts 213°
2026-04-23 14:16 -28.78780 179.50318 34175 ft 486 kts 213°
2026-04-23 14:17 -28.85150 179.47706 34175 ft 486 kts 213°
2026-04-23 14:17 -28.91512 179.45093 34175 ft 486 kts 213°
2026-04-23 14:18 -28.97878 179.42476 34171 ft 486 kts 213°
2026-04-23 14:18 -29.04246 179.39854 34173 ft 486 kts 213°
2026-04-23 14:19 -29.10607 179.37231 34173 ft 486 kts 213°
2026-04-23 14:19 -29.16959 179.34610 34173 ft 485 kts 214°
2026-04-23 14:20 -29.23276 179.31998 34173 ft 485 kts 214°
2026-04-23 14:20 -29.29630 179.29369 34175 ft 485 kts 214°
2026-04-23 14:21 -29.35975 179.26739 34176 ft 485 kts 214°
2026-04-23 14:21 -29.42318 179.24107 34171 ft 484 kts 214°
2026-04-23 14:22 -29.48663 179.21471 34174 ft 484 kts 214°
2026-04-23 14:22 -29.54994 179.18836 34166 ft 484 kts 214°
2026-04-23 14:23 -29.61288 179.16214 34175 ft 484 kts 214°
2026-04-23 14:23 -29.67609 179.13576 34173 ft 483 kts 214°
2026-04-23 14:24 -29.73938 179.10932 34173 ft 483 kts 214°
2026-04-23 14:24 -29.80259 179.08288 34172 ft 483 kts 214°
2026-04-23 14:25 -29.86573 179.05644 34173 ft 483 kts 214°
2026-04-23 14:25 -29.92887 179.02994 34171 ft 482 kts 214°
2026-04-23 14:26 -29.99190 179.00348 34172 ft 482 kts 214°
2026-04-23 14:26 -30.05426 178.97591 34174 ft 477 kts 217°
2026-04-23 14:27 -30.11527 178.94617 34172 ft 475 kts 218°
2026-04-23 14:27 -30.17610 178.91635 34174 ft 475 kts 217°
2026-04-23 14:28 -30.23670 178.88710 34178 ft 475 kts 217°
2026-04-23 14:28 -30.29775 178.85787 34178 ft 475 kts 217°
2026-04-23 14:29 -30.35880 178.82865 34173 ft 474 kts 217°
2026-04-23 14:29 -30.41984 178.79937 34174 ft 474 kts 217°
2026-04-23 14:30 -30.48086 178.77004 34179 ft 474 kts 217°
2026-04-23 14:30 -30.54135 178.74093 34177 ft 474 kts 217°
2026-04-23 14:31 -30.60238 178.71152 34173 ft 474 kts 217°
2026-04-23 14:31 -30.66337 178.68209 34180 ft 474 kts 217°
2026-04-23 14:32 -30.72432 178.65264 34176 ft 474 kts 217°
2026-04-23 14:32 -30.78524 178.62315 34181 ft 474 kts 217°
2026-04-23 14:33 -30.84623 178.59360 34179 ft 475 kts 217°
2026-04-23 14:33 -30.90717 178.56402 34184 ft 475 kts 217°
2026-04-23 14:34 -30.96824 178.53435 34181 ft 475 kts 217°
2026-04-23 14:34 -31.02918 178.50470 34183 ft 475 kts 216°
2026-04-23 14:35 -31.09024 178.47496 34185 ft 475 kts 216°
2026-04-23 14:35 -31.15081 178.44541 34186 ft 475 kts 216°
2026-04-23 14:36 -31.21179 178.41561 34184 ft 475 kts 216°
2026-04-23 14:36 -31.27275 178.38578 34190 ft 475 kts 216°
2026-04-23 14:37 -31.33372 178.35591 34179 ft 475 kts 216°
2026-04-23 14:37 -31.39471 178.32600 34184 ft 475 kts 216°
2026-04-23 14:38 -31.45565 178.29605 34185 ft 475 kts 216°
2026-04-23 14:38 -31.51653 178.26610 34183 ft 474 kts 216°
2026-04-23 14:39 -31.57755 178.23603 34187 ft 474 kts 216°
2026-04-23 14:39 -31.63795 178.20623 34187 ft 474 kts 216°
2026-04-23 14:40 -31.69883 178.17614 34189 ft 474 kts 217°
2026-04-23 14:40 -31.75954 178.14611 34188 ft 474 kts 217°
2026-04-23 14:41 -31.82043 178.11594 34185 ft 474 kts 217°
2026-04-23 14:41 -31.88111 178.08583 34200 ft 474 kts 217°
2026-04-23 14:42 -31.94200 178.05557 34187 ft 474 kts 217°
2026-04-23 14:42 -32.00260 178.02539 34190 ft 473 kts 217°
2026-04-23 14:43 -32.06296 177.99532 34184 ft 473 kts 217°
2026-04-23 14:43 -32.12350 177.96510 34186 ft 473 kts 217°
2026-04-23 14:44 -32.18433 177.93471 34188 ft 473 kts 217°
2026-04-23 14:44 -32.24496 177.90435 34188 ft 473 kts 217°
2026-04-23 14:45 -32.30554 177.87399 34187 ft 473 kts 217°
2026-04-23 14:45 -32.35599 177.84866 34187 ft 473 kts 217°
2026-04-23 14:46 -32.40679 177.82313 34186 ft 473 kts 217°
2026-04-23 14:46 -32.46317 177.79476 34187 ft 473 kts 217°
2026-04-23 14:47 -32.52375 177.76423 34190 ft 473 kts 217°
2026-04-23 14:47 -32.58442 177.73361 34189 ft 473 kts 217°
2026-04-23 14:48 -32.59659 177.72746 34191 ft 473 kts 217°
2026-04-23 14:48 -32.65728 177.69678 34193 ft 473 kts 217°
2026-04-23 14:49 -32.71784 177.66611 34194 ft 473 kts 217°
2026-04-23 14:49 -32.77836 177.63543 34195 ft 473 kts 217°
2026-04-23 14:50 -32.83844 177.60492 34193 ft 473 kts 218°
2026-04-23 14:50 -32.89935 177.57393 34199 ft 472 kts 218°
2026-04-23 14:51 -32.95931 177.54340 34194 ft 472 kts 218°
2026-04-23 14:51 -33.01988 177.51250 34194 ft 472 kts 218°
2026-04-23 14:52 -33.08027 177.48165 34198 ft 472 kts 218°
2026-04-23 14:52 -33.14077 177.45069 34197 ft 472 kts 218°
2026-04-23 14:53 -33.20076 177.41995 34197 ft 472 kts 218°
2026-04-23 14:53 -33.26104 177.38901 34196 ft 471 kts 218°
2026-04-23 14:54 -33.32132 177.35804 34202 ft 471 kts 218°
2026-04-23 14:54 -33.38158 177.32702 34196 ft 471 kts 218°
2026-04-23 14:55 -33.44181 177.29597 34197 ft 471 kts 218°
2026-04-23 14:55 -33.50201 177.26488 34201 ft 471 kts 217°
2026-04-23 14:56 -33.56226 177.23373 34202 ft 471 kts 217°
2026-04-23 14:56 -33.62252 177.20252 34201 ft 472 kts 217°
2026-04-23 14:57 -33.68282 177.17124 34195 ft 472 kts 217°
2026-04-23 14:57 -33.74306 177.13995 34201 ft 472 kts 217°
2026-04-23 14:58 -33.80336 177.10858 34202 ft 472 kts 217°
2026-04-23 14:58 -33.86326 177.07736 34203 ft 472 kts 217°
2026-04-23 14:59 -33.92360 177.04587 34204 ft 472 kts 217°
2026-04-23 14:59 -33.98399 177.01431 34205 ft 473 kts 217°
2026-04-23 15:00 -34.04436 176.98270 34207 ft 473 kts 217°
2026-04-23 15:00 -34.10473 176.95106 34209 ft 473 kts 216°
2026-04-23 15:01 -34.16387 176.91748 34213 ft 462 kts 222°
2026-04-23 15:01 -34.21915 176.87838 34208 ft 460 kts 223°
2026-04-23 15:02 -34.27388 176.83918 34201 ft 460 kts 223°
2026-04-23 15:02 -34.32943 176.79948 34212 ft 461 kts 223°
2026-04-23 15:03 -34.38430 176.76027 34206 ft 461 kts 223°
2026-04-23 15:03 -34.43951 176.72077 34213 ft 461 kts 223°
2026-04-23 15:04 -34.49478 176.68116 34218 ft 461 kts 222°
2026-04-23 15:04 -34.55000 176.64153 34214 ft 462 kts 222°
2026-04-23 15:05 -34.60533 176.60176 34216 ft 462 kts 222°
2026-04-23 15:05 -34.66070 176.56191 34215 ft 462 kts 222°
2026-04-23 15:06 -34.71602 176.52202 34220 ft 463 kts 222°
2026-04-23 15:06 -34.77139 176.48204 34222 ft 463 kts 222°
2026-04-23 15:07 -34.82683 176.44194 34213 ft 463 kts 222°
2026-04-23 15:07 -34.88191 176.40204 34219 ft 464 kts 222°
2026-04-23 15:08 -34.93743 176.36176 34216 ft 464 kts 222°
2026-04-23 15:09 -35.00657 176.31151 34223 ft 465 kts 222°
2026-04-23 15:09 -35.06218 176.27102 34228 ft 466 kts 221°
2026-04-23 15:10 -35.10833 176.23736 34225 ft 466 kts 221°
2026-04-23 15:10 -35.17353 176.18973 34228 ft 467 kts 221°
2026-04-23 15:11 -35.22935 176.14893 34232 ft 468 kts 221°
2026-04-23 15:11 -35.28528 176.10788 34229 ft 468 kts 221°
2026-04-23 15:12 -35.34078 176.06707 34230 ft 469 kts 221°
2026-04-23 15:12 -35.39683 176.02582 34236 ft 470 kts 221°
2026-04-23 15:13 -35.45294 175.98445 34235 ft 471 kts 221°
2026-04-23 15:13 -35.50918 175.94292 34237 ft 472 kts 221°
2026-04-23 15:14 -35.56534 175.90137 34239 ft 473 kts 221°
2026-04-23 15:14 -35.62174 175.85959 33858 ft 469 kts 221°
2026-04-23 15:14 -35.64954 175.83893 33229 ft 465 kts 220°
2026-04-23 15:15 -35.67727 175.81820 32346 ft 468 kts 220°
2026-04-23 15:15 -35.70525 175.79728 31455 ft 472 kts 219°
2026-04-23 15:15 -35.73345 175.77623 30544 ft 476 kts 218°
2026-04-23 15:15 -35.76189 175.75501 29474 ft 481 kts 218°
2026-04-23 15:16 -35.79043 175.73378 28734 ft 479 kts 217°
2026-04-23 15:16 -35.81886 175.71267 28071 ft 475 kts 217°
2026-04-23 15:16 -35.84679 175.69188 27396 ft 472 kts 216°
2026-04-23 15:16 -35.87481 175.67097 26699 ft 470 kts 216°
2026-04-23 15:17 -35.90272 175.65013 25999 ft 468 kts 216°
2026-04-23 15:17 -35.93090 175.62904 25291 ft 467 kts 215°
2026-04-23 15:17 -35.95830 175.60852 24594 ft 466 kts 214°
2026-04-23 15:17 -35.98601 175.58777 23883 ft 465 kts 214°
2026-04-23 15:18 -36.01370 175.56700 23080 ft 464 kts 214°
2026-04-23 15:18 -36.04130 175.54633 22315 ft 461 kts 213°
2026-04-23 15:18 -36.06862 175.52585 21570 ft 458 kts 213°
2026-04-23 15:18 -36.09582 175.50542 20814 ft 456 kts 213°
2026-04-23 15:19 -36.12271 175.48521 20036 ft 454 kts 213°
2026-04-23 15:19 -36.14993 175.46471 19246 ft 454 kts 212°
2026-04-23 15:19 -36.17686 175.44442 18458 ft 453 kts 212°
2026-04-23 15:19 -36.20361 175.42426 17647 ft 450 kts 212°
2026-04-23 15:20 -36.22135 175.41089 17132 ft 448 kts 212°
2026-04-23 15:20 -36.25674 175.38418 16152 ft 443 kts 212°
2026-04-23 15:20 -36.28284 175.36448 15602 ft 427 kts 212°
2026-04-23 15:20 -36.30725 175.34605 15356 ft 397 kts 212°
2026-04-23 15:21 -36.33012 175.32876 15161 ft 373 kts 212°
2026-04-23 15:21 -36.35162 175.31249 14981 ft 361 kts 212°
2026-04-23 15:21 -36.37383 175.29819 14428 ft 362 kts 204°
2026-04-23 15:21 -36.39738 175.28682 13812 ft 365 kts 200°
2026-04-23 15:22 -36.42118 175.27611 13270 ft 363 kts 200°
2026-04-23 15:22 -36.44488 175.26549 12746 ft 360 kts 200°
2026-04-23 15:22 -36.46826 175.25495 12250 ft 357 kts 200°
2026-04-23 15:22 -36.49147 175.24444 11665 ft 351 kts 199°
2026-04-23 15:23 -36.51437 175.23404 10903 ft 347 kts 199°
2026-04-23 15:23 -36.53678 175.22384 10404 ft 336 kts 199°
2026-04-23 15:23 -36.55796 175.21426 10278 ft 313 kts 199°
2026-04-23 15:23 -36.57768 175.20519 10167 ft 294 kts 199°
2026-04-23 15:24 -36.59670 175.19645 9856 ft 290 kts 198°
2026-04-23 15:24 -36.61605 175.18759 9416 ft 300 kts 198°
2026-04-23 15:24 -36.63572 175.17859 9060 ft 299 kts 198°
2026-04-23 15:24 -36.65487 175.16981 8840 ft 290 kts 198°
2026-04-23 15:25 -36.67381 175.16124 8423 ft 290 kts 197°
2026-04-23 15:25 -36.69278 175.15258 8030 ft 289 kts 198°
2026-04-23 15:25 -36.70523 175.14684 7788 ft 287 kts 198°
2026-04-23 15:25 -36.73019 175.13533 7294 ft 285 kts 198°
2026-04-23 15:26 -36.74877 175.12679 6960 ft 282 kts 197°
2026-04-23 15:26 -36.76712 175.11836 6616 ft 280 kts 197°
2026-04-23 15:26 -36.78527 175.11002 6260 ft 278 kts 197°
2026-04-23 15:26 -36.80331 175.10178 5911 ft 275 kts 197°
2026-04-23 15:27 -36.82119 175.09358 5559 ft 272 kts 197°
2026-04-23 15:27 -36.83864 175.08556 5075 ft 268 kts 197°
2026-04-23 15:27 -36.85597 175.07760 4550 ft 264 kts 197°
2026-04-23 15:27 -36.87302 175.06977 4128 ft 258 kts 197°
2026-04-23 15:28 -36.88950 175.06221 3922 ft 243 kts 197°
2026-04-23 15:28 -36.90482 175.05523 3825 ft 226 kts 196°
2026-04-23 15:28 -36.91911 175.04871 3705 ft 210 kts 196°
2026-04-23 15:28 -36.93213 175.04242 3624 ft 193 kts 201°
2026-04-23 15:29 -36.94223 175.03208 3478 ft 183 kts 229°
2026-04-23 15:29 -36.94800 175.01848 3358 ft 173 kts 247°
2026-04-23 15:29 -36.95166 175.00472 3238 ft 162 kts 250°
2026-04-23 15:29 -36.95520 174.99161 3057 ft 159 kts 248°
2026-04-23 15:30 -36.95881 174.97858 2887 ft 158 kts 248°
2026-04-23 15:30 -36.96246 174.96555 2733 ft 159 kts 248°
2026-04-23 15:30 -36.96611 174.95254 2501 ft 156 kts 248°
2026-04-23 15:30 -36.96951 174.94016 2299 ft 149 kts 248°
2026-04-23 15:31 -36.97284 174.92812 2102 ft 145 kts 248°
2026-04-23 15:31 -36.97612 174.91623 1898 ft 144 kts 247°
2026-04-23 15:31 -36.97940 174.90438 1701 ft 143 kts 247°
2026-04-23 15:31 -36.98264 174.89265 1489 ft 143 kts 247°
2026-04-23 15:32 -36.98587 174.88097 1307 ft 142 kts 247°
2026-04-23 15:32 -36.98800 174.87325 1177 ft 142 kts 248°
2026-04-23 15:32 -36.99135 174.86076 1027 ft 155 kts 249°
2026-04-23 15:32 -36.99485 174.84800 778 ft 150 kts 246°
2026-04-23 15:33 -36.99812 174.83614 542 ft 142 kts 247°
2026-04-23 15:33 -37.00131 174.82476 384 ft 138 kts 248°
2026-04-23 15:33 -37.00439 174.81355 217 ft 135 kts 248°
2026-04-23 15:33 -37.00748 174.80261 66 ft 129 kts 247°
2026-04-23 15:34 -37.01030 174.79277 32 ft 107 kts 252°
2026-04-23 15:34 -37.01177 174.78723 32 ft 19 kts 252°
2026-04-23 15:34 -37.01206 174.78614 32 ft 25 kts 251°
2026-04-23 15:34 -37.01248 174.78386 32 ft 26 kts 265°
2026-04-23 15:35 -37.01232 174.78188 32 ft 16 kts 281°
2026-04-23 15:35 -37.01197 174.78107 32 ft 10 kts 332°
2026-04-23 15:35 -37.01151 174.78141 32 ft 9 kts 61°
2026-04-23 15:35 -37.01123 174.78220 32 ft 11 kts 66°
2026-04-23 15:36 -37.01105 174.78277 32 ft 0 kts 70°
2026-04-23 15:36 -37.01105 174.78279 32 ft 2 kts 70°
2026-04-23 15:37 -37.01091 174.78324 32 ft 8 kts 65°
2026-04-23 15:37 -37.01043 174.78368 32 ft 10 kts 16°
2026-04-23 15:37 -37.00967 174.78362 32 ft 12 kts 354°
2026-04-23 15:37 -37.00883 174.78369 32 ft 7 kts
2026-04-23 15:38 -37.00828 174.78375 32 ft 9 kts
2026-04-23 15:38 -37.00771 174.78384 32 ft 9 kts 14°
2026-04-23 15:38 -37.00747 174.78379 32 ft 0 kts 329°
2026-04-23 15:38 -37.00726 174.78346 31 ft 9 kts 306°
2026-04-23 15:39 -37.00716 174.78323 31 ft 0 kts 299°
2026-04-23 15:39 -37.00708 174.78304 31 ft 0 kts 297°